<- Previous Day | Today | Next Day ->

All Data for 04 May 2021

 

Time A - D Temp A - D Dew Point A - D Humidity A - D Pressure A - D Wind A - D Wind Dir Gust A - D Rain Rate A - D Rain Total
00:00 9.5 6.8 83 1003.0 34.2 NW 34.2 0.0 0.0
00:01 9.5 6.8 83 1003.0 24.4 NW 34.2 0.0 0.0
00:02 9.5 6.8 83 1002.8 25.1 W 34.2 0.0 0.0
00:03 9.5 6.8 83 1002.9 19.7 WNW 34.2 0.0 0.0
00:04 9.5 6.8 83 1002.9 22.8 W 34.2 0.0 0.0
00:05 9.5 6.8 83 1002.9 26.6 W 34.2 0.0 0.0
00:06 9.5 6.8 83 1002.7 22.8 WNW 34.2 0.0 0.0
00:08 9.5 6.8 83 1003.0 23.5 W 34.2 0.0 0.0
00:09 9.5 6.8 83 1003.1 19.7 SW 34.2 0.0 0.0
00:10 9.5 6.8 83 1003.2 19.7 NW 27.3 0.0 0.0
00:11 9.4 6.7 83 1002.9 17.4 SW 26.6 0.0 0.0
00:12 9.4 6.7 83 1002.8 17.4 SW 26.6 0.0 0.0
00:13 9.4 6.7 83 1002.8 17.4 SW 26.6 0.0 0.0
00:14 9.3 6.6 83 1003.0 23.5 W 26.6 0.0 0.0
00:15 9.3 6.6 83 1002.7 25.9 W 26.6 0.0 0.0
00:16 9.3 6.6 83 1003.1 25.9 SW 25.9 0.0 0.0
00:17 9.3 6.6 83 1002.9 27.3 SW 30.4 0.0 0.0
00:18 9.3 6.7 84 1002.8 27.3 W 30.4 0.0 0.0
00:19 9.3 6.7 84 1003.0 26.6 SW 30.4 0.0 0.0
00:20 9.3 6.7 84 1002.9 28.9 S 30.4 0.0 0.0
00:22 9.3 6.7 84 1003.1 25.1 N 30.4 0.0 0.0
00:23 9.4 6.8 84 1002.9 25.1 W 30.4 0.0 0.0
00:24 9.4 6.7 83 1002.9 25.1 W 30.4 0.0 0.0
00:25 9.4 6.7 83 1003.2 17.4 SW 30.4 0.0 0.0
00:26 9.4 6.7 83 1003.1 16.8 W 30.4 0.0 0.0
00:27 9.4 6.7 83 1002.9 20.6 W 28.9 0.0 0.0
00:28 9.4 6.7 83 1002.9 26.6 W 28.9 0.0 0.0
00:29 9.4 6.7 83 1002.7 22.8 W 28.9 0.0 0.0
00:30 9.4 6.7 83 1002.9 22.8 W 28.9 0.0 0.0
00:31 9.4 6.7 83 1002.8 24.4 W 28.9 0.0 0.0
00:32 9.4 6.7 83 1002.8 24.4 W 26.6 0.0 0.0
00:33 9.4 6.7 83 1003.0 20.6 W 26.6 0.0 0.0
00:34 9.4 6.7 83 1002.9 23.5 W 26.6 0.0 0.0
00:36 9.4 6.7 83 1002.9 19.0 WNW 26.6 0.0 0.0
00:37 9.4 6.7 83 1002.7 19.7 W 26.6 0.0 0.0
00:38 9.5 6.8 83 1002.5 25.1 NW 25.1 0.0 0.0
00:39 9.5 6.8 83 1002.8 21.3 SW 25.1 0.0 0.0
00:40 9.5 6.8 83 1002.7 22.8 NW 25.1 0.0 0.0
00:41 9.5 6.8 83 1002.8 22.8 SW 25.1 0.0 0.0
00:42 9.5 6.8 83 1002.6 25.9 W 25.9 0.0 0.0
00:43 9.5 6.8 83 1002.6 25.9 SW 25.9 0.0 0.0
00:44 9.5 6.8 83 1002.6 27.3 NW 27.3 0.0 0.0
00:45 9.5 6.8 83 1002.7 19.7 SW 27.3 0.0 0.0
00:46 9.5 6.8 83 1002.8 16.8 NW 27.3 0.0 0.0
00:47 9.5 6.8 83 1002.8 21.3 NW 27.3 0.0 0.0
00:48 9.5 6.8 83 1002.9 21.3 NW 27.3 0.0 0.0
00:50 9.5 6.8 83 1002.9 17.4 NW 27.3 0.0 0.0
00:51 9.4 6.7 83 1002.7 22.8 W 27.3 0.0 0.0
00:52 9.4 6.7 83 1002.6 22.1 W 27.3 0.0 0.0
00:53 9.4 6.7 83 1002.9 19.7 SW 27.3 0.0 0.0
00:54 9.4 6.7 83 1002.7 24.4 NW 24.4 0.0 0.0
00:55 9.4 6.7 83 1002.7 25.1 W 25.1 0.0 0.0
00:56 9.4 6.7 83 1003.0 25.1 W 25.1 0.0 0.0
00:57 9.4 6.5 82 1003.0 25.1 W 31.1 0.0 0.0
00:58 9.3 6.4 82 1002.8 28.9 NW 31.1 0.0 0.0
00:59 9.3 6.4 82 1002.6 29.8 SW 31.1 0.0 0.0
01:00 9.3 6.4 82 1002.7 28.9 NW 31.1 0.0 0.0
01:01 9.3 6.4 82 1002.7 28.9 NW 31.1 0.0 0.0
01:02 9.3 6.4 82 1002.9 28.9 NW 31.1 0.0 0.0
01:04 9.3 6.4 82 1002.9 28.9 NW 31.1 0.0 0.0
01:05 9.3 6.4 82 1002.9 28.9 NW 31.1 0.0 0.0
01:06 9.3 6.4 82 1003.0 28.9 NW 31.1 0.0 0.0
01:07 9.1 5.8 80 1003.1 19.0 W 29.8 0.0 0.0
01:08 9.1 5.8 80 1003.1 28.9 W 29.8 0.0 0.0
01:09 9.1 5.7 79 1002.8 27.3 WSW 29.8 0.0 0.0
01:10 9.1 5.7 79 1002.8 30.4 NW 30.4 0.0 0.0
01:11 9.1 5.7 79 1003.0 30.4 NW 30.4 0.0 0.0
01:12 9.1 5.7 79 1002.7 24.4 W 30.4 0.0 0.0
01:13 9.1 5.7 79 1002.8 19.7 NW 30.4 0.0 0.0
01:14 9.1 5.7 79 1002.9 22.1 WNW 30.4 0.0 0.0
01:15 9.1 5.7 79 1002.9 19.7 W 30.4 0.0 0.0
01:16 9.1 5.7 79 1002.7 18.3 NW 30.4 0.0 0.0
01:18 9.0 5.6 79 1002.7 22.8 W 30.4 0.0 0.0
01:19 9.1 5.7 79 1002.8 21.3 W 30.4 0.0 0.0
01:20 9.1 5.7 79 1002.8 21.3 NW 30.4 0.0 0.0
01:21 9.0 5.6 79 1002.8 25.9 NW 29.8 0.0 0.0
01:22 9.0 5.6 79 1003.0 20.6 WNW 29.8 0.0 0.0
01:23 9.0 5.6 79 1002.7 23.5 W 29.8 0.0 0.0
01:24 9.0 5.6 79 1003.0 20.6 WSW 29.8 0.0 0.0
01:25 9.0 5.6 79 1003.1 22.1 W 29.8 0.0 0.0
01:26 9.0 5.6 79 1003.1 18.3 W 29.8 0.0 0.0
01:27 9.0 5.6 79 1003.1 19.7 W 29.8 0.0 0.0
01:28 9.0 5.6 79 1003.0 16.8 SW 29.8 0.0 0.0
01:29 9.0 5.6 79 1002.8 24.4 W 29.8 0.0 0.0
01:30 9.0 5.6 79 1003.0 28.2 W 28.2 0.0 0.0
01:32 9.0 5.7 80 1003.0 17.4 W 28.2 0.0 0.0
01:33 9.0 5.7 80 1003.2 18.3 W 28.2 0.0 0.0
01:34 9.0 5.7 80 1002.9 22.8 W 28.2 0.0 0.0
01:35 9.1 5.8 80 1002.6 22.8 NW 28.2 0.0 0.0
01:36 9.1 5.8 80 1002.8 28.2 W 28.2 0.0 0.0
01:37 9.1 5.8 80 1002.8 28.2 W 28.2 0.0 0.0
01:38 9.1 5.8 80 1003.0 18.3 W 28.2 0.0 0.0
01:39 9.1 5.8 80 1002.9 25.9 W 28.2 0.0 0.0
01:40 9.1 5.8 80 1002.8 25.9 NW 28.2 0.0 0.0
01:41 9.1 5.8 80 1003.0 17.4 NW 28.2 0.0 0.0
01:42 9.1 5.8 80 1003.1 23.5 N 28.2 0.0 0.0
01:43 9.1 5.8 80 1003.2 30.4 W 30.4 0.0 0.0
01:44 9.1 5.8 80 1003.0 19.0 NW 30.4 0.0 0.0
01:46 9.1 5.8 80 1003.0 18.3 N 30.4 0.0 0.0
01:47 9.1 5.8 80 1003.0 22.8 NW 30.4 0.0 0.0
01:48 9.1 5.8 80 1003.1 25.9 SW 30.4 0.0 0.0
01:49 9.1 5.8 80 1002.9 32.0 NW 32.0 0.0 0.0
01:50 9.1 5.8 80 1003.0 26.6 SW 32.0 0.0 0.0
01:51 9.1 5.8 80 1002.9 25.1 W 32.0 0.0 0.0
01:52 9.2 5.9 80 1003.1 25.1 NW 32.0 0.0 0.0
01:53 9.2 5.9 80 1002.8 24.4 NW 32.0 0.0 0.0
01:54 9.2 5.9 80 1002.8 23.5 N 32.0 0.0 0.0
01:55 9.2 5.9 80 1002.8 23.5 N 32.0 0.0 0.0
01:56 9.2 5.9 80 1002.9 22.1 W 32.0 0.0 0.0
01:57 9.2 5.9 80 1003.0 23.5 W 32.0 0.0 0.0
01:58 9.2 5.9 80 1002.8 23.5 NW 32.0 0.0 0.0
01:59 9.2 5.9 80 1003.0 17.4 NW 32.0 0.0 0.0
02:01 9.3 6.0 80 1002.9 21.3 W 31.1 0.0 0.0
02:02 9.3 6.0 80 1003.0 13.6 SW 31.1 0.0 0.0
02:03 9.3 6.0 80 1003.0 16.8 NW 23.5 0.0 0.0
02:04 9.3 6.0 80 1003.0 15.9 NW 23.5 0.0 0.0
02:05 9.2 5.9 80 1003.2 19.7 NW 23.5 0.0 0.0
02:06 9.2 5.9 80 1003.3 28.9 SSW 28.9 0.0 0.0
02:07 9.2 5.9 80 1003.2 28.9 W 28.9 0.0 0.0
02:08 9.2 5.9 80 1003.1 20.6 SW 28.9 0.0 0.0
02:09 9.2 5.9 80 1003.0 20.6 W 28.9 0.0 0.0
02:10 9.3 6.0 80 1003.3 24.4 W 28.9 0.0 0.0
02:11 9.3 6.0 80 1002.9 24.4 W 28.9 0.0 0.0
02:12 9.3 6.0 80 1003.0 21.3 W 28.9 0.0 0.0
02:13 9.3 6.0 80 1003.0 20.6 NW 28.9 0.0 0.0
02:15 9.3 6.0 80 1003.2 22.1 W 28.9 0.0 0.0
02:16 9.3 6.0 80 1003.0 25.1 W 28.9 0.0 0.0
02:17 9.3 6.0 80 1003.0 25.1 N 26.6 0.0 0.0
02:18 9.3 6.0 80 1003.1 20.6 W 26.6 0.0 0.0
02:19 9.3 6.0 80 1003.3 22.1 W 27.3 0.0 0.0
02:20 9.3 6.0 80 1003.3 22.1 W 27.3 0.0 0.0
02:21 9.3 6.0 80 1003.2 20.6 NE 27.3 0.0 0.0
02:22 9.3 6.0 80 1003.4 19.0 W 27.3 0.0 0.0
02:23 9.3 6.0 80 1002.9 19.7 WNW 27.3 0.0 0.0
02:24 9.3 6.0 80 1003.2 28.2 W 28.2 0.0 0.0
02:25 9.3 6.0 80 1003.0 25.9 NW 28.2 0.0 0.0
02:26 9.3 6.0 80 1003.1 20.6 NW 28.2 0.0 0.0
02:27 9.3 6.0 80 1003.3 21.3 W 28.2 0.0 0.0
02:29 9.3 6.0 80 1003.2 20.6 W 28.2 0.0 0.0
02:30 9.3 6.0 80 1003.2 20.6 W 28.2 0.0 0.0
02:31 9.2 5.9 80 1003.2 16.8 NW 28.2 0.0 0.0
02:32 9.2 5.9 80 1003.4 15.9 NW 28.2 0.0 0.0
02:33 9.2 5.9 80 1003.1 19.0 W 28.2 0.0 0.0
02:34 9.2 5.9 80 1003.2 23.5 NW 26.6 0.0 0.0
02:35 9.2 5.9 80 1003.3 19.0 W 26.6 0.0 0.0
02:36 9.2 5.9 80 1003.6 16.8 NW 26.6 0.0 0.0
02:37 9.2 5.9 80 1003.4 21.3 W 26.6 0.0 0.0
02:38 9.2 5.9 80 1003.5 23.5 W 26.6 0.0 0.0
02:39 9.2 5.9 80 1003.4 13.0 W 26.6 0.0 0.0
02:40 9.2 5.9 80 1003.4 17.4 W 26.6 0.0 0.0
02:41 9.2 5.9 80 1003.4 22.1 W 23.5 0.0 0.0
02:43 9.2 5.9 80 1003.5 21.3 W 23.5 0.0 0.0
02:44 9.2 5.9 80 1003.6 21.3 W 23.5 0.0 0.0
02:45 9.2 5.9 80 1003.6 17.4 W 23.5 0.0 0.0
02:46 9.2 5.9 80 1003.4 19.0 SW 23.5 0.0 0.0
02:47 9.2 5.9 80 1003.4 15.9 W 23.5 0.0 0.0
02:48 9.2 5.9 80 1003.4 15.9 W 23.5 0.0 0.0
02:49 9.2 5.9 80 1003.7 15.9 NW 22.1 0.0 0.0
02:50 9.2 5.9 80 1003.6 18.3 SW 22.1 0.0 0.0
02:51 9.2 5.9 80 1003.6 20.6 W 22.1 0.0 0.0
02:52 9.1 5.8 80 1003.6 19.7 NW 22.1 0.0 0.0
02:53 9.1 5.8 80 1003.7 27.3 W 27.3 0.0 0.0
02:54 9.1 5.8 80 1003.8 19.7 W 27.3 0.0 0.0
02:55 9.1 5.7 79 1003.6 19.7 NW 27.3 0.0 0.0
02:57 9.1 5.7 79 1003.8 17.4 W 27.3 0.0 0.0
02:58 9.1 5.7 79 1003.7 19.0 W 27.3 0.0 0.0
02:59 9.1 5.7 79 1003.7 22.1 W 27.3 0.0 0.0
03:00 9.1 5.7 79 1003.8 22.1 W 27.3 0.0 0.0
03:01 9.1 5.7 79 1003.8 22.1 W 27.3 0.0 0.0
03:02 9.1 5.7 79 1003.7 22.1 W 27.3 0.0 0.0
03:03 9.1 5.7 79 1003.9 22.1 W 27.3 0.0 0.0
03:04 9.1 5.7 79 1003.9 22.1 W 22.1 0.0 0.0
03:05 9.1 5.7 79 1003.8 22.1 W 22.1 0.0 0.0
03:06 9.1 5.7 79 1003.9 22.1 W 22.1 0.0 0.0
03:07 9.1 5.7 79 1003.8 22.1 W 22.1 0.0 0.0
03:08 9.0 5.4 78 1003.8 23.5 W 23.5 0.0 0.0
03:09 9.0 5.4 78 1003.9 12.1 W 23.5 0.0 0.0
03:11 9.0 5.4 78 1003.8 15.9 NW 23.5 0.0 0.0
03:12 9.0 5.4 78 1003.8 20.6 WNW 23.5 0.0 0.0
03:13 9.0 5.4 78 1003.9 18.3 W 23.5 0.0 0.0
03:14 9.0 5.4 78 1003.8 22.1 SSW 23.5 0.0 0.0
03:15 9.0 5.4 78 1004.1 15.2 W 23.5 0.0 0.0
03:16 9.0 5.4 78 1004.1 15.2 W 23.5 0.0 0.0
03:17 9.0 5.4 78 1003.9 18.3 W 23.5 0.0 0.0
03:18 9.0 5.4 78 1004.1 17.4 W 22.1 0.0 0.0
03:19 9.0 5.4 78 1003.9 22.8 NW 22.8 0.0 0.0
03:20 9.0 5.4 78 1004.1 18.3 W 22.8 0.0 0.0
03:21 9.0 5.2 77 1004.0 22.8 NW 22.8 0.0 0.0
03:22 9.0 5.2 77 1004.1 13.0 NW 22.8 0.0 0.0
03:23 8.9 5.1 77 1004.0 25.1 NW 25.1 0.0 0.0
03:25 8.9 5.1 77 1004.0 23.5 W 25.1 0.0 0.0
03:26 8.9 5.1 77 1003.8 18.3 W 25.1 0.0 0.0
03:27 8.9 5.1 77 1004.1 19.7 SW 25.1 0.0 0.0
03:28 8.9 5.1 77 1004.1 19.7 SW 25.1 0.0 0.0
03:29 8.9 5.1 77 1003.9 19.7 NW 25.1 0.0 0.0
03:30 8.9 5.1 77 1004.2 20.6 NW 25.1 0.0 0.0
03:31 8.9 5.1 77 1004.0 18.3 W 25.1 0.0 0.0
03:32 8.9 5.1 77 1003.9 17.4 W 25.1 0.0 0.0
03:33 8.9 5.1 77 1004.0 21.3 NW 25.1 0.0 0.0
03:34 8.9 5.1 77 1004.2 21.3 NW 23.5 0.0 0.0
03:35 8.9 5.1 77 1004.1 22.1 W 23.5 0.0 0.0
03:36 8.9 5.1 77 1004.0 19.7 W 22.1 0.0 0.0
03:37 8.9 5.1 77 1004.2 19.7 SW 22.1 0.0 0.0
03:39 8.9 5.1 77 1004.2 13.0 S 22.1 0.0 0.0
03:40 8.9 5.1 77 1004.2 17.4 W 22.1 0.0 0.0
03:41 8.9 5.1 77 1003.9 17.4 W 22.1 0.0 0.0
03:42 8.9 5.1 77 1004.3 16.8 W 22.1 0.0 0.0
03:43 8.9 5.1 77 1004.1 22.1 W 22.1 0.0 0.0
03:44 8.9 5.1 77 1004.1 22.1 W 22.1 0.0 0.0
03:45 8.8 5.0 77 1004.0 15.9 W 22.1 0.0 0.0
03:46 8.8 5.0 77 1004.2 16.8 SW 22.1 0.0 0.0
03:47 8.8 5.0 77 1004.2 19.0 WNW 22.1 0.0 0.0
03:48 8.8 5.0 77 1004.5 19.0 W 22.1 0.0 0.0
03:49 8.8 4.8 76 1004.1 14.5 W 22.1 0.0 0.0
03:50 8.8 4.8 76 1004.2 16.8 W 22.1 0.0 0.0
03:51 8.8 4.8 76 1004.2 15.2 NW 22.1 0.0 0.0
03:53 8.8 4.8 76 1004.4 17.4 NW 22.1 0.0 0.0
03:54 8.8 4.8 76 1004.1 20.6 W 20.6 0.0 0.0
03:55 8.8 4.8 76 1004.2 18.3 E 20.6 0.0 0.0
03:56 8.8 4.8 76 1004.3 19.7 W 20.6 0.0 0.0
03:57 8.8 4.8 76 1004.3 14.5 NW 20.6 0.0 0.0
03:58 8.8 5.0 77 1004.4 11.4 NW 20.6 0.0 0.0
03:59 8.8 5.0 77 1004.2 16.8 W 20.6 0.0 0.0
04:00 8.9 5.1 77 1004.4 13.6 NW 20.6 0.0 0.0
04:01 8.9 5.1 77 1004.4 12.1 NW 20.6 0.0 0.0
04:02 8.9 5.1 77 1004.4 15.9 W 20.6 0.0 0.0
04:03 8.9 5.1 77 1004.5 13.6 W 20.6 0.0 0.0
04:04 8.9 5.1 77 1004.5 11.4 NE 20.6 0.0 0.0
04:05 8.9 5.3 78 1004.5 22.1 N 22.1 0.0 0.0
04:07 8.9 5.3 78 1004.3 18.3 NW 22.1 0.0 0.0
04:08 8.9 5.3 78 1004.3 23.5 NW 23.5 0.0 0.0
04:09 8.9 5.1 77 1004.5 17.4 WNW 23.5 0.0 0.0
04:10 8.9 5.1 77 1004.5 17.4 NW 23.5 0.0 0.0
04:11 8.8 5.0 77 1004.5 16.8 N 23.5 0.0 0.0
04:12 8.8 5.0 77 1004.5 16.8 N 23.5 0.0 0.0
04:13 8.8 5.0 77 1004.4 15.2 NW 23.5 0.0 0.0
04:14 8.8 5.0 77 1004.6 17.4 S 23.5 0.0 0.0
04:15 8.8 5.0 77 1004.5 13.6 SW 23.5 0.0 0.0
04:16 8.8 5.0 77 1004.3 15.2 NW 23.5 0.0 0.0
04:17 8.8 5.0 77 1004.4 15.2 NW 23.5 0.0 0.0
04:18 8.8 5.0 77 1004.6 14.5 NW 23.5 0.0 0.0
04:19 8.8 5.0 77 1004.4 9.2 SW 17.4 0.0 0.0
04:21 8.8 5.0 77 1004.2 15.9 N 17.4 0.0 0.0
04:22 8.8 5.0 77 1004.5 14.5 NW 17.4 0.0 0.0
04:23 8.8 5.0 77 1004.6 15.2 NW 17.4 0.0 0.0
04:24 8.8 5.0 77 1004.5 14.5 NW 15.9 0.0 0.0
04:25 8.8 5.0 77 1004.7 10.7 SW 15.9 0.0 0.0
04:26 8.8 5.0 77 1004.5 14.5 NE 15.9 0.0 0.0
04:27 8.8 5.0 77 1004.3 15.9 N 15.9 0.0 0.0
04:28 8.8 5.0 77 1004.7 16.8 NW 16.8 0.0 0.0
04:29 8.8 5.0 77 1004.3 20.6 SW 20.6 0.0 0.0
04:30 8.8 5.0 77 1004.5 15.2 NW 20.6 0.0 0.0
04:31 8.8 5.0 77 1004.5 12.1 NW 20.6 0.0 0.0
04:32 8.8 5.0 77 1004.4 12.1 NW 20.6 0.0 0.0
04:33 8.8 5.0 77 1004.5 11.4 W 20.6 0.0 0.0
04:35 8.8 5.0 77 1004.4 17.4 W 20.6 0.0 0.0
04:36 8.8 5.0 77 1004.5 13.6 SE 20.6 0.0 0.0
04:37 8.8 5.0 77 1004.4 13.6 NW 20.6 0.0 0.0
04:38 8.8 5.0 77 1004.4 19.7 W 20.6 0.0 0.0
04:39 8.8 5.0 77 1004.7 22.1 N 22.1 0.0 0.0
04:40 8.8 5.0 77 1004.7 22.1 N 22.1 0.0 0.0
04:41 8.8 5.0 77 1004.4 22.1 NW 22.1 0.0 0.0
04:42 8.8 5.0 77 1004.5 19.7 NW 22.1 0.0 0.0
04:43 8.8 5.0 77 1004.6 13.0 W 22.1 0.0 0.0
04:44 8.8 5.0 77 1004.4 10.7 NW 22.1 0.0 0.0
04:45 8.8 5.0 77 1004.4 13.0 WNW 22.1 0.0 0.0
04:46 8.8 5.0 77 1004.5 25.1 N 25.1 0.0 0.0
04:47 8.8 5.0 77 1004.4 20.6 NW 25.1 0.0 0.0
04:49 8.8 4.8 76 1004.5 14.5 N 25.1 0.0 0.0
04:50 8.7 4.7 76 1004.3 22.1 N 25.1 0.0 0.0
04:51 8.7 4.7 76 1004.5 15.2 NW 25.1 0.0 0.0
04:52 8.7 4.7 76 1004.4 13.6 NW 25.1 0.0 0.0
04:53 8.7 4.7 76 1004.5 13.6 NW 25.1 0.0 0.0
04:54 8.7 4.7 76 1004.3 20.6 NW 25.1 0.0 0.0
04:55 8.7 4.7 76 1004.5 15.2 E 25.1 0.0 0.0
04:56 8.7 4.7 76 1004.5 16.8 W 25.1 0.0 0.0
04:57 8.7 4.7 76 1004.4 12.1 SE 22.1 0.0 0.0
04:58 8.7 4.7 76 1004.5 12.1 N 22.1 0.0 0.0
04:59 8.7 4.7 76 1004.5 13.6 NW 22.1 0.0 0.0
05:00 8.7 4.7 76 1004.5 14.5 NW 22.1 0.0 0.0
05:01 8.7 4.7 76 1004.4 14.5 NW 20.6 0.0 0.0
05:03 8.7 4.7 76 1004.7 14.5 NW 20.6 0.0 0.0
05:04 8.7 4.7 76 1004.4 14.5 NW 16.8 0.0 0.0
05:05 8.7 4.7 76 1004.6 23.5 NW 23.5 0.0 0.0
05:06 8.6 4.6 76 1004.5 14.5 NW 23.5 0.0 0.0
05:07 8.6 4.6 76 1004.6 13.6 W 23.5 0.0 0.0
05:08 8.6 4.6 76 1004.6 13.6 W 23.5 0.0 0.0
05:09 8.6 4.6 76 1004.5 16.8 W 23.5 0.0 0.0
05:10 8.6 4.6 76 1004.5 22.1 NW 23.5 0.0 0.0
05:11 8.6 4.6 76 1004.6 13.6 W 23.5 0.0 0.0
05:12 8.6 4.6 76 1004.6 13.6 SW 23.5 0.0 0.0
05:13 8.6 4.6 76 1004.8 18.3 N 23.5 0.0 0.0
05:14 8.6 4.6 76 1004.6 18.3 NW 23.5 0.0 0.0
05:15 8.6 4.6 76 1004.7 16.8 NE 23.5 0.0 0.0
05:17 8.6 4.6 76 1004.5 19.7 E 23.5 0.0 0.0
05:18 8.6 4.6 76 1004.5 12.1 SW 23.5 0.0 0.0
05:19 8.6 4.8 77 1004.6 15.2 SW 23.5 0.0 0.0
05:20 8.6 4.8 77 1004.6 13.6 NW 23.5 0.0 0.0
05:21 8.6 4.8 77 1004.7 13.6 N 23.5 0.0 0.0
05:22 8.6 4.8 77 1004.7 10.7 SE 23.5 0.0 0.0
05:23 8.6 4.8 77 1004.7 14.5 NW 23.5 0.0 0.0
05:24 8.6 4.8 77 1004.8 13.6 NW 23.5 0.0 0.0
05:25 8.6 5.0 78 1004.6 16.8 NW 23.5 0.0 0.0
05:26 8.6 5.0 78 1004.7 18.3 NW 19.7 0.0 0.0
05:27 8.6 5.0 78 1004.7 15.2 W 19.7 0.0 0.0
05:28 8.6 5.0 78 1004.8 13.6 NW 18.3 0.0 0.0
05:29 8.6 5.0 78 1004.7 10.7 W 18.3 0.0 0.0
05:30 8.6 5.0 78 1004.8 15.9 N 18.3 0.0 0.0
05:32 8.6 5.0 78 1004.8 14.5 S 18.3 0.0 0.0
05:33 8.6 5.0 78 1004.8 14.5 NW 18.3 0.0 0.0
05:34 8.6 5.0 78 1004.9 13.6 W 18.3 0.0 0.0
05:35 8.6 5.0 78 1004.8 9.8 NW 18.3 0.0 0.0
05:36 8.6 5.0 78 1004.8 9.8 NW 18.3 0.0 0.0
05:37 8.6 5.0 78 1004.8 14.5 W 16.8 0.0 0.0
05:38 8.6 5.0 78 1004.8 15.9 WNW 16.8 0.0 0.0
05:39 8.6 5.0 78 1005.1 15.9 WNW 16.8 0.0 0.0
05:40 8.6 5.2 79 1004.8 16.8 NW 16.8 0.0 0.0
05:41 8.6 5.2 79 1004.9 13.6 NW 16.8 0.0 0.0
05:42 8.6 5.2 79 1005.0 12.1 W 16.8 0.0 0.0
05:43 8.6 5.2 79 1005.1 14.5 NW 16.8 0.0 0.0
05:44 8.5 4.9 78 1005.0 15.2 N 16.8 0.0 0.0
05:46 8.5 4.9 78 1005.1 14.5 NW 16.8 0.0 0.0
05:47 8.5 4.9 78 1004.9 15.2 NW 16.8 0.0 0.0
05:48 8.5 4.9 78 1005.0 18.3 W 18.3 0.0 0.0
05:49 8.5 4.9 78 1005.3 12.1 NW 18.3 0.0 0.0
05:50 8.5 4.9 78 1005.0 18.3 W 18.3 0.0 0.0
05:51 8.5 4.9 78 1005.0 12.1 NW 18.3 0.0 0.0
05:52 8.5 4.9 78 1005.2 9.2 W 18.3 0.0 0.0
05:53 8.5 4.9 78 1005.1 10.7 NW 18.3 0.0 0.0
05:54 8.5 4.9 78 1005.1 13.6 W 18.3 0.0 0.0
05:55 8.5 4.9 78 1005.0 13.6 W 18.3 0.0 0.0
05:56 8.5 4.9 78 1005.2 21.3 NW 21.3 0.0 0.0
05:57 8.5 4.9 78 1005.1 15.9 N 21.3 0.0 0.0
05:59 8.5 4.7 77 1005.2 15.2 W 21.3 0.0 0.0
06:00 8.5 4.7 77 1005.1 15.2 W 21.3 0.0 0.0
06:01 8.5 4.7 77 1005.1 15.2 W 21.3 0.0 0.0
06:02 8.5 4.7 77 1005.1 15.2 W 21.3 0.0 0.0
06:03 8.5 4.7 77 1005.0 15.2 W 21.3 0.0 0.0
06:04 8.5 4.7 77 1005.0 15.2 W 21.3 0.0 0.0
06:05 8.5 4.7 77 1005.4 15.2 W 21.3 0.0 0.0
06:06 8.5 4.7 77 1005.3 15.2 W 20.6 0.0 0.0
06:07 8.5 4.7 77 1005.3 15.2 W 20.6 0.0 0.0
06:08 8.5 4.7 77 1005.1 15.2 W 20.6 0.0 0.0
06:09 8.5 4.5 76 1005.0 17.4 W 20.6 0.0 0.0
06:10 8.6 4.6 76 1005.2 14.5 NW 19.0 0.0 0.0
06:11 8.6 4.6 76 1005.2 19.7 W 19.7 0.0 0.0
06:12 8.6 4.6 76 1005.5 12.1 W 19.7 0.0 0.0
06:14 8.6 4.6 76 1005.3 16.8 NW 19.7 0.0 0.0
06:15 8.6 4.6 76 1005.2 15.2 W 19.7 0.0 0.0
06:16 8.6 4.6 76 1005.3 15.2 W 19.7 0.0 0.0
06:17 8.6 4.6 76 1005.5 10.7 W 19.7 0.0 0.0
06:18 8.6 4.6 76 1005.3 12.1 NW 19.7 0.0 0.0
06:19 8.6 4.6 76 1005.4 13.6 NW 19.7 0.0 0.0
06:20 8.6 4.6 76 1005.4 13.6 W 19.7 0.0 0.0
06:21 8.6 4.6 76 1005.6 13.6 W 19.7 0.0 0.0
06:22 8.6 4.6 76 1005.4 13.0 NW 19.7 0.0 0.0
06:23 8.6 4.6 76 1005.7 10.7 SW 16.8 0.0 0.0
06:24 8.6 4.6 76 1005.5 9.8 NW 16.8 0.0 0.0
06:25 8.6 4.6 76 1005.5 13.0 N 15.2 0.0 0.0
06:27 8.6 4.6 76 1005.4 14.5 WNW 14.5 0.0 0.0
06:28 8.6 4.6 76 1005.7 18.3 W 18.3 0.0 0.0
06:29 8.6 4.6 76 1005.5 9.2 NW 18.3 0.0 0.0
06:30 8.6 4.6 76 1005.5 13.0 W 18.3 0.0 0.0
06:31 8.6 4.6 76 1005.4 15.2 SW 18.3 0.0 0.0
06:32 8.6 4.6 76 1005.4 15.2 SW 18.3 0.0 0.0
06:33 8.6 4.6 76 1005.6 13.0 NW 18.3 0.0 0.0
06:34 8.6 4.6 76 1005.4 10.7 W 18.3 0.0 0.0
06:35 8.6 4.6 76 1005.5 10.7 W 18.3 0.0 0.0
06:36 8.6 4.6 76 1005.4 11.4 W 18.3 0.0 0.0
06:37 8.6 4.6 76 1005.5 11.4 W 18.3 0.0 0.0
06:38 8.7 4.9 77 1005.5 15.2 NW 18.3 0.0 0.0
06:39 8.7 4.9 77 1005.3 13.6 NW 16.8 0.0 0.0
06:41 8.7 4.9 77 1005.6 16.8 N 16.8 0.0 0.0
06:42 8.7 4.9 77 1005.6 20.6 NW 20.6 0.0 0.0
06:43 8.7 4.9 77 1005.6 15.2 N 20.6 0.0 0.0
06:44 8.7 4.7 76 1005.5 10.7 NW 20.6 0.0 0.0
06:45 8.7 4.7 76 1005.6 10.7 NW 20.6 0.0 0.0
06:46 8.7 4.7 76 1005.4 11.4 NW 20.6 0.0 0.0
06:47 8.7 4.7 76 1005.6 17.4 NW 20.6 0.0 0.0
06:48 8.7 4.7 76 1005.4 17.4 NW 20.6 0.0 0.0
06:49 8.8 4.8 76 1005.6 13.0 NW 20.6 0.0 0.0
06:50 8.8 4.8 76 1005.6 9.2 SW 20.6 0.0 0.0
06:51 8.8 4.8 76 1005.4 10.7 NW 20.6 0.0 0.0
06:52 8.8 4.8 76 1005.6 9.8 W 20.6 0.0 0.0
06:53 8.8 4.8 76 1005.5 12.1 W 20.6 0.0 0.0
06:54 8.8 4.8 76 1005.7 13.0 W 17.4 0.0 0.0
06:56 8.8 4.8 76 1005.8 10.7 S 17.4 0.0 0.0
06:57 8.8 4.8 76 1005.7 10.7 S 17.4 0.0 0.0
06:58 8.8 4.8 76 1005.8 13.6 NW 17.4 0.0 0.0
06:59 8.8 4.8 76 1005.9 8.3 S 13.6 0.0 0.0
07:00 8.8 4.8 76 1005.9 8.3 S 13.6 0.0 0.0
07:01 8.8 4.8 76 1005.5 8.3 S 13.6 0.0 0.0
07:02 8.8 4.8 76 1005.7 8.3 S 13.6 0.0 0.0
07:03 8.8 4.8 76 1005.7 8.3 S 13.6 0.0 0.0
07:04 8.8 4.8 76 1005.8 8.3 S 13.6 0.0 0.0
07:05 8.8 4.8 76 1005.7 8.3 S 13.6 0.0 0.0
07:06 8.8 4.8 76 1005.8 8.3 S 13.6 0.0 0.0
07:07 8.7 4.9 77 1005.9 16.8 W 16.8 0.0 0.0
07:08 8.7 4.9 77 1005.9 10.7 W 16.8 0.0 0.0
07:10 8.7 4.9 77 1005.9 13.0 W 16.8 0.0 0.0
07:11 8.7 4.9 77 1006.0 13.6 N 16.8 0.0 0.0
07:12 8.7 4.9 77 1005.9 12.1 NW 16.8 0.0 0.0
07:13 8.7 4.9 77 1006.0 14.5 N 16.8 0.0 0.0
07:14 8.7 4.9 77 1006.0 18.3 NW 18.3 0.0 0.0
07:15 8.8 5.0 77 1005.8 12.1 NW 18.3 0.0 0.0
07:16 8.8 5.2 78 1005.8 9.8 NW 18.3 0.0 0.0
07:17 8.8 5.2 78 1005.9 9.8 N 18.3 0.0 0.0
07:18 8.8 5.2 78 1006.0 15.2 NW 18.3 0.0 0.0
07:19 8.8 5.2 78 1006.0 14.5 W 18.3 0.0 0.0
07:20 8.8 5.2 78 1005.8 12.1 W 18.3 0.0 0.0
07:21 8.8 5.2 78 1005.9 10.7 W 18.3 0.0 0.0
07:22 8.8 5.2 78 1006.0 14.5 N 18.3 0.0 0.0
07:24 8.8 5.4 79 1006.1 11.4 W 15.2 0.0 0.0
07:25 8.8 5.4 79 1006.2 9.2 NW 15.2 0.0 0.0
07:26 8.8 5.4 79 1006.4 8.3 NW 15.2 0.0 0.0
07:27 8.8 5.4 79 1006.1 10.7 W 15.2 0.0 0.0
07:28 8.8 5.4 79 1006.3 11.4 W 14.5 0.0 0.0
07:29 8.8 5.4 79 1006.3 13.0 W 14.5 0.0 0.0
07:30 8.8 5.4 79 1006.2 13.0 N 14.5 0.0 0.0
07:31 8.8 5.4 79 1006.3 12.1 E 14.5 0.0 0.0
07:32 8.8 5.4 79 1006.2 16.8 W 16.8 0.0 0.0
07:33 8.8 5.4 79 1006.4 14.5 W 16.8 0.0 0.0
07:34 8.8 5.4 79 1006.2 13.0 NE 16.8 0.0 0.0
07:35 8.8 5.4 79 1006.4 9.2 W 16.8 0.0 0.0
07:36 8.8 5.4 79 1006.3 17.4 NE 17.4 0.0 0.0
07:37 8.8 5.4 79 1006.4 19.0 W 19.0 0.0 0.0
07:39 8.8 5.2 78 1006.3 15.9 NW 19.0 0.0 0.0
07:40 8.9 5.3 78 1006.4 13.6 NW 19.0 0.0 0.0
07:41 8.9 5.3 78 1006.3 13.0 NW 19.0 0.0 0.0
07:42 8.9 5.3 78 1006.4 13.0 W 19.0 0.0 0.0
07:43 8.9 5.3 78 1006.5 14.5 W 19.0 0.0 0.0
07:44 8.9 5.3 78 1006.5 14.5 NW 19.0 0.0 0.0
07:45 8.9 5.3 78 1006.6 6.9 N 19.0 0.0 0.0
07:46 8.9 5.3 78 1006.2 10.7 NW 19.0 0.0 0.0
07:47 8.9 5.3 78 1006.5 10.7 NW 19.0 0.0 0.0
07:48 8.9 5.3 78 1006.6 9.8 NW 17.4 0.0 0.0
07:49 8.9 5.3 78 1006.6 11.4 NW 15.9 0.0 0.0
07:50 8.9 5.3 78 1006.3 13.0 N 15.9 0.0 0.0
07:53 8.9 5.1 77 1006.9 18.3 SW 19.0 0.0 0.0
07:54 8.9 5.1 77 1006.6 9.2 W 19.0 0.0 0.0
07:55 8.9 5.1 77 1006.6 11.4 W 19.0 0.0 0.0
07:56 8.9 5.1 77 1006.6 13.6 NW 19.0 0.0 0.0
07:57 8.9 5.1 77 1006.7 10.7 NW 19.0 0.0 0.0
07:58 8.9 5.1 77 1006.6 10.7 N 19.0 0.0 0.0
07:59 8.9 5.1 77 1006.6 12.1 W 19.0 0.0 0.0
08:00 8.9 5.1 77 1006.6 12.1 W 19.0 0.0 0.0
08:01 9.0 5.2 77 1006.6 9.8 N 19.0 0.0 0.0
08:02 9.0 5.2 77 1006.7 10.7 NW 19.0 0.0 0.0
08:03 9.0 5.2 77 1006.6 12.1 N 18.3 0.0 0.0
08:04 9.0 5.2 77 1006.6 14.5 N 14.5 0.0 0.0
08:05 9.0 5.2 77 1006.8 8.3 W 14.5 0.0 0.0
08:07 9.0 5.2 77 1006.9 17.4 NW 17.4 0.0 0.0
08:08 9.0 5.2 77 1006.9 9.2 SW 17.4 0.0 0.0
08:09 9.0 5.2 77 1006.9 15.9 N 17.4 0.0 0.0
08:10 9.0 5.2 77 1006.9 9.8 W 17.4 0.0 0.0
08:11 9.0 5.2 77 1007.0 9.8 WNW 17.4 0.0 0.0
08:12 9.0 5.2 77 1006.8 12.1 SW 17.4 0.0 0.0
08:13 9.0 5.2 77 1006.8 12.1 NW 17.4 0.0 0.0
08:14 9.0 5.0 76 1006.9 19.0 NW 19.0 0.0 0.0
08:15 9.0 5.0 76 1006.9 19.0 N 19.0 0.0 0.0
08:16 9.0 5.0 76 1006.9 15.9 N 19.0 0.0 0.0
08:17 9.0 5.0 76 1007.1 16.8 N 19.0 0.0 0.0
08:18 9.0 4.8 75 1007.0 15.9 N 19.0 0.0 0.0
08:19 9.0 4.8 75 1007.0 14.5 N 19.0 0.0 0.0
08:21 9.1 4.9 75 1006.9 11.4 NW 19.0 0.0 0.0
08:22 9.1 4.9 75 1007.0 11.4 WNW 19.0 0.0 0.0
08:23 9.1 4.9 75 1007.1 16.8 N 19.0 0.0 0.0
08:24 9.1 4.9 75 1007.1 14.5 NW 19.0 0.0 0.0
08:25 9.1 4.9 75 1007.1 14.5 NW 19.0 0.0 0.0
08:26 9.1 4.9 75 1007.1 15.2 S 18.3 0.0 0.0
08:27 9.1 4.9 75 1007.1 12.1 W 18.3 0.0 0.0
08:28 9.1 4.9 75 1007.0 11.4 W 18.3 0.0 0.0
08:29 9.1 4.9 75 1007.1 17.4 NE 18.3 0.0 0.0
08:30 9.1 4.9 75 1007.0 17.4 SW 18.3 0.0 0.0
08:31 9.1 4.9 75 1007.0 13.0 N 17.4 0.0 0.0
08:32 9.2 4.8 74 1007.1 13.0 N 17.4 0.0 0.0
08:34 9.2 5.0 75 1007.0 6.0 NW 17.4 0.0 0.0
08:35 9.2 5.0 75 1007.2 11.4 NW 17.4 0.0 0.0
08:36 9.3 5.1 75 1007.2 12.1 N 17.4 0.0 0.0
08:37 9.3 5.1 75 1007.0 18.3 W 18.3 0.0 0.0
08:38 9.3 5.1 75 1007.1 13.0 NW 18.3 0.0 0.0
08:39 9.3 5.1 75 1007.3 10.7 NW 18.3 0.0 0.0
08:40 9.3 5.1 75 1007.3 10.7 NW 18.3 0.0 0.0
08:41 9.3 5.1 75 1007.3 17.4 NE 18.3 0.0 0.0
08:42 9.3 5.1 75 1007.2 13.6 N 18.3 0.0 0.0
08:43 9.3 5.1 75 1007.3 13.6 N 18.3 0.0 0.0
08:44 9.3 5.1 75 1007.2 14.5 N 18.3 0.0 0.0
08:45 9.3 4.9 74 1007.2 14.5 NW 18.3 0.0 0.0
08:46 9.3 4.9 74 1007.3 14.5 NW 18.3 0.0 0.0
08:47 9.3 4.9 74 1007.3 15.2 NW 18.3 0.0 0.0
08:49 9.3 4.9 74 1007.2 15.2 NW 18.3 0.0 0.0
08:50 9.3 4.9 74 1007.5 10.7 NW 18.3 0.0 0.0
08:51 9.3 4.7 73 1007.5 11.4 W 16.8 0.0 0.0
08:52 9.3 4.7 73 1007.4 11.4 W 16.8 0.0 0.0
08:53 9.3 4.7 73 1007.6 11.4 W 16.8 0.0 0.0
08:54 9.3 4.7 73 1007.6 13.6 W 16.8 0.0 0.0
08:55 9.3 4.7 73 1007.6 11.4 N 15.2 0.0 0.0
08:56 9.3 4.7 73 1007.4 14.5 N 15.2 0.0 0.0
08:57 9.3 4.7 73 1007.4 14.5 N 15.2 0.0 0.0
08:58 9.4 4.8 73 1007.7 9.2 W 15.2 0.0 0.0
08:59 9.4 4.8 73 1007.5 15.9 W 15.9 0.0 0.0
09:00 9.4 4.8 73 1007.6 15.9 W 15.9 0.0 0.0
09:01 9.4 4.8 73 1007.6 15.9 W 15.9 0.0 0.0
09:02 9.4 4.8 73 1007.6 15.9 W 15.9 0.0 0.0
09:04 9.4 4.8 73 1007.7 15.9 W 15.9 0.0 0.0
09:05 9.4 4.8 73 1007.6 15.9 W 15.9 0.0 0.0
09:06 9.4 4.8 73 1007.9 15.9 W 15.9 0.0 0.0
09:07 9.6 5.0 73 1007.8 13.0 NW 15.9 0.0 0.0
09:08 9.6 5.0 73 1007.8 9.2 N 15.9 0.0 0.0
09:09 9.6 5.0 73 1007.7 9.2 N 15.9 0.0 0.0
09:10 9.6 5.0 73 1007.7 15.9 NW 15.9 0.0 0.0
09:11 9.6 5.0 73 1007.6 15.9 N 15.9 0.0 0.0
09:12 9.6 5.0 73 1007.8 11.4 NW 15.9 0.0 0.0
09:13 9.6 5.0 73 1007.8 13.0 W 15.9 0.0 0.0
09:14 9.6 5.0 73 1007.9 13.0 W 15.9 0.0 0.0
09:15 9.6 5.0 73 1007.7 8.3 W 15.9 0.0 0.0
09:16 9.6 5.0 73 1007.6 8.3 W 15.9 0.0 0.0
09:17 9.8 5.2 73 1007.8 14.5 W 17.4 0.0 0.0
09:18 9.8 5.4 74 1007.8 11.4 W 17.4 0.0 0.0
09:19 9.9 5.5 74 1008.0 15.9 W 17.4 0.0 0.0
09:20 9.9 5.5 74 1007.8 15.9 W 17.4 0.0 0.0
09:22 10.0 5.6 74 1007.9 12.1 N 17.4 0.0 0.0
09:23 10.0 5.4 73 1007.8 18.3 W 18.3 0.0 0.0
09:24 10.0 5.4 73 1007.9 7.6 NW 18.3 0.0 0.0
09:25 10.1 5.5 73 1007.9 14.5 NE 18.3 0.0 0.0
09:26 10.1 5.5 73 1008.0 16.8 N 18.3 0.0 0.0
09:27 10.1 5.5 73 1008.1 17.4 E 18.3 0.0 0.0
09:28 10.1 5.5 73 1007.7 18.3 SW 18.3 0.0 0.0
09:29 10.1 5.5 73 1008.0 19.7 N 19.7 0.0 0.0
09:30 10.1 5.5 73 1007.8 19.7 W 19.7 0.0 0.0
09:31 10.1 5.3 72 1007.7 16.8 N 19.7 0.0 0.0
09:32 10.0 5.2 72 1008.0 16.8 NW 19.7 0.0 0.0
09:33 10.0 5.2 72 1007.8 11.4 NW 19.7 0.0 0.0
09:34 10.0 5.2 72 1007.8 11.4 NW 19.7 0.0 0.0
09:36 9.9 5.1 72 1007.8 9.8 NW 19.7 0.0 0.0
09:37 9.9 5.1 72 1008.0 9.8 N 19.7 0.0 0.0
09:38 9.8 5.0 72 1008.1 13.0 SW 19.7 0.0 0.0
09:39 9.8 5.0 72 1008.0 18.3 N 19.7 0.0 0.0
09:40 9.8 5.0 72 1008.0 15.2 N 18.3 0.0 0.0
09:41 9.8 5.0 72 1008.0 15.2 N 18.3 0.0 0.0
09:42 9.8 5.0 72 1008.0 15.2 N 18.3 0.0 0.0
09:43 9.9 5.1 72 1008.0 15.9 WNW 18.3 0.0 0.0
09:44 9.9 4.9 71 1008.0 15.9 W 18.3 0.0 0.0
09:45 9.9 4.9 71 1008.1 15.9 NW 19.0 0.0 0.0
09:46 9.9 4.9 71 1008.0 11.4 W 19.0 0.0 0.0
09:47 9.9 4.9 71 1007.9 12.1 NW 19.0 0.0 0.0
09:48 9.9 4.9 71 1008.0 15.2 W 19.0 0.0 0.0
09:49 9.9 4.9 71 1007.9 13.6 NE 19.0 0.0 0.0
09:51 9.9 4.7 70 1008.0 9.8 NW 19.0 0.0 0.0
09:52 9.9 4.7 70 1008.1 9.8 NW 19.0 0.0 0.0
09:53 9.9 4.7 70 1008.2 19.7 W 19.7 0.0 0.0
09:54 10.0 4.8 70 1008.1 15.2 NW 19.7 0.0 0.0
09:55 10.0 4.8 70 1007.9 19.0 NW 19.7 0.0 0.0
09:56 10.0 4.8 70 1007.9 19.0 NW 19.7 0.0 0.0
09:57 10.1 4.9 70 1007.9 14.5 NW 19.7 0.0 0.0
09:58 10.1 4.9 70 1008.1 15.2 NE 19.7 0.0 0.0
09:59 10.1 4.9 70 1008.0 15.2 W 19.7 0.0 0.0
10:00 10.1 4.9 70 1008.2 23.5 NW 23.5 0.0 0.0
10:01 10.1 4.7 69 1008.3 23.5 SW 23.5 0.0 0.0
10:02 10.1 4.7 69 1008.0 17.4 NW 23.5 0.0 0.0
10:03 10.1 4.7 69 1007.9 17.4 NW 23.5 0.0 0.0
10:05 10.2 4.8 69 1008.2 17.4 N 23.5 0.0 0.0
10:06 10.2 4.8 69 1008.1 12.1 WNW 23.5 0.0 0.0
10:07 10.3 5.1 70 1007.9 11.4 N 23.5 0.0 0.0
10:08 10.3 5.1 70 1008.3 11.4 SW 23.5 0.0 0.0
10:09 10.3 5.1 70 1008.0 15.2 W 23.5 0.0 0.0
10:10 10.2 5.0 70 1008.1 13.6 W 23.5 0.0 0.0
10:11 10.2 5.0 70 1008.0 12.1 NW 23.5 0.0 0.0
10:12 10.2 5.0 70 1008.1 21.3 NW 21.3 0.0 0.0
10:13 10.2 5.0 70 1008.1 18.3 NW 21.3 0.0 0.0
10:14 10.2 5.0 70 1008.0 17.4 N 21.3 0.0 0.0
10:15 10.2 4.8 69 1008.1 17.4 N 21.3 0.0 0.0
10:16 10.2 4.8 69 1008.1 15.9 NW 21.3 0.0 0.0
10:17 10.2 4.8 69 1008.2 13.0 N 21.3 0.0 0.0
10:19 10.3 4.9 69 1008.0 17.4 NW 21.3 0.0 0.0
10:20 10.3 4.9 69 1008.3 17.4 W 21.3 0.0 0.0
10:21 10.3 4.9 69 1008.2 12.1 W 21.3 0.0 0.0
10:22 10.3 4.9 69 1008.2 12.1 N 18.3 0.0 0.0
10:23 10.4 5.0 69 1008.1 10.7 NNW 18.3 0.0 0.0
10:24 10.4 5.0 69 1008.2 13.0 N 18.3 0.0 0.0
10:25 10.4 5.0 69 1008.0 15.2 SW 18.3 0.0 0.0
10:26 10.4 5.0 69 1008.1 19.0 S 19.0 0.0 0.0
10:27 10.4 5.0 69 1008.1 19.7 NW 19.7 0.0 0.0
10:28 10.4 4.8 68 1008.1 20.6 N 20.6 0.0 0.0
10:29 10.4 4.8 68 1008.4 15.2 N 20.6 0.0 0.0
10:30 10.4 4.8 68 1008.3 15.9 NW 20.6 0.0 0.0
10:31 10.5 4.8 68 1008.1 19.0 SW 20.6 0.0 0.0
10:32 10.5 4.8 68 1008.3 21.3 NW 21.3 0.0 0.0
10:34 10.5 4.8 68 1008.3 15.9 SW 21.3 0.0 0.0
10:35 10.6 4.9 68 1008.2 19.0 WNW 21.3 0.0 0.0
10:36 10.6 4.9 68 1008.2 16.8 W 21.3 0.0 0.0
10:37 10.6 4.9 68 1008.5 12.1 NW 21.3 0.0 0.0
10:38 10.6 4.9 68 1008.4 19.0 NE 21.3 0.0 0.0
10:39 10.6 4.9 68 1008.5 19.0 NE 21.3 0.0 0.0
10:40 10.6 4.7 67 1008.4 13.6 NW 21.3 0.0 0.0
10:41 10.6 4.7 67 1008.5 16.8 N 21.3 0.0 0.0
10:42 10.7 4.8 67 1008.4 17.4 NW 19.0 0.0 0.0
10:43 10.7 4.8 67 1008.4 15.9 NW 19.0 0.0 0.0
10:44 10.7 4.8 67 1008.3 15.2 NW 19.0 0.0 0.0
10:45 10.8 4.9 67 1008.3 15.2 NW 19.0 0.0 0.0
10:46 10.8 4.9 67 1008.3 15.2 WNW 19.0 0.0 0.0
10:47 10.8 4.7 66 1008.3 17.4 N 19.0 0.0 0.0
10:49 10.8 4.7 66 1008.3 14.5 N 17.4 0.0 0.0
10:50 10.8 4.7 66 1008.2 16.8 N 17.4 0.0 0.0
10:51 10.8 4.7 66 1008.4 22.1 NW 22.1 0.0 0.0
10:52 10.8 4.9 67 1008.5 16.8 NW 22.1 0.0 0.0
10:53 10.9 5.0 67 1008.5 13.6 W 22.1 0.0 0.0
10:54 10.8 4.9 67 1008.3 19.7 NE 22.1 0.0 0.0
10:55 10.8 4.7 66 1008.4 13.6 NW 22.1 0.0 0.0
10:56 10.8 4.7 66 1008.4 13.6 NW 22.1 0.0 0.0
10:57 10.9 5.0 67 1008.5 10.7 W 22.1 0.0 0.0
10:58 10.9 5.0 67 1008.6 8.3 W 22.1 0.0 0.0
10:59 11.0 5.3 68 1008.5 9.2 W 22.1 0.0 0.0
11:00 11.0 5.3 68 1008.7 9.2 NW 22.1 0.0 0.0
11:01 11.0 5.3 68 1008.3 9.2 NW 22.1 0.0 0.0
11:02 11.0 5.3 68 1008.5 9.2 NW 22.1 0.0 0.0
11:03 11.0 5.3 68 1008.5 9.2 NW 19.7 0.0 0.0
11:04 11.0 5.3 68 1008.6 9.2 NW 19.7 0.0 0.0
11:05 11.0 5.3 68 1008.3 9.2 NW 13.6 0.0 0.0
11:07 11.1 5.6 69 1008.6 12.1 W 17.4 0.0 0.0
11:08 11.1 5.6 69 1008.5 9.2 N 17.4 0.0 0.0
11:09 11.1 5.6 69 1008.5 9.2 N 17.4 0.0 0.0
11:10 11.2 5.7 69 1008.7 16.8 W 17.4 0.0 0.0
11:11 11.4 5.9 69 1008.7 15.2 SW 17.4 0.0 0.0
11:12 11.5 6.0 69 1008.4 10.7 NW 17.4 0.0 0.0
11:13 11.5 6.0 69 1008.5 11.4 NW 17.4 0.0 0.0
11:14 11.6 6.1 69 1008.5 13.6 N 17.4 0.0 0.0
11:15 11.7 6.2 69 1008.8 15.9 W 17.4 0.0 0.0
11:16 11.8 6.3 69 1008.3 11.4 N 17.4 0.0 0.0
11:17 11.9 6.4 69 1008.6 14.5 W 16.8 0.0 0.0
11:18 11.9 6.4 69 1008.5 17.4 NW 17.4 0.0 0.0
11:19 11.9 6.4 69 1008.7 17.4 W 17.4 0.0 0.0
11:20 11.8 6.1 68 1008.7 15.2 W 17.4 0.0 0.0
11:21 11.8 5.7 66 1008.5 19.0 W 19.0 0.0 0.0
11:22 11.7 5.6 66 1008.7 11.4 NW 19.0 0.0 0.0
11:23 11.7 5.6 66 1008.6 9.2 W 19.0 0.0 0.0
11:24 11.8 5.9 67 1008.6 13.0 W 19.0 0.0 0.0
11:25 11.9 6.2 68 1008.6 15.2 E 19.0 0.0 0.0
11:26 11.9 6.2 68 1008.7 17.4 N 19.0 0.0 0.0
11:28 11.8 5.9 67 1008.9 13.6 NW 19.0 0.0 0.0
11:29 11.8 5.9 67 1008.8 14.5 NW 19.0 0.0 0.0
11:30 11.8 5.7 66 1008.7 13.0 NW 19.0 0.0 0.0
11:31 11.7 5.6 66 1008.8 10.7 NW 17.4 0.0 0.0
11:32 11.7 5.6 66 1008.8 10.7 W 17.4 0.0 0.0
11:33 11.7 5.6 66 1008.8 18.3 W 18.3 0.0 0.0
11:34 11.7 5.6 66 1008.6 18.3 NW 18.3 0.0 0.0
11:35 11.8 5.7 66 1008.8 17.4 W 18.3 0.0 0.0
11:36 11.8 5.7 66 1008.7 16.8 N 18.3 0.0 0.0
11:37 11.8 5.4 65 1008.8 11.4 SW 18.3 0.0 0.0
11:38 11.8 5.4 65 1008.9 18.3 W 18.3 0.0 0.0
11:39 11.8 5.2 64 1008.8 19.0 S 19.0 0.0 0.0
11:40 11.8 5.2 64 1008.7 18.3 WNW 19.0 0.0 0.0
11:41 11.8 5.2 64 1008.7 13.0 N 19.0 0.0 0.0
11:43 12.0 5.4 64 1008.8 14.5 N 19.0 0.0 0.0
11:44 12.0 5.4 64 1008.7 11.4 N 19.0 0.0 0.0
11:45 12.0 5.4 64 1008.8 13.6 N 19.0 0.0 0.0
11:46 12.1 5.5 64 1008.8 12.1 W 19.0 0.0 0.0
11:47 12.2 5.6 64 1008.8 16.8 N 19.0 0.0 0.0
11:48 12.2 5.4 63 1008.7 18.3 NW 19.0 0.0 0.0
11:49 12.2 5.4 63 1008.9 18.3 NE 19.0 0.0 0.0
11:50 12.2 5.4 63 1009.0 10.7 NW 18.3 0.0 0.0
11:51 12.2 5.4 63 1009.1 9.2 WNW 18.3 0.0 0.0
11:52 12.2 5.4 63 1009.1 9.2 NW 18.3 0.0 0.0
11:53 12.3 5.5 63 1008.7 11.4 NW 18.3 0.0 0.0
11:54 12.3 5.5 63 1009.1 13.6 N 18.3 0.0 0.0
11:55 12.3 5.5 63 1009.1 18.3 NNE 18.3 0.0 0.0
11:56 12.3 5.2 62 1009.0 17.4 NW 18.3 0.0 0.0
11:57 12.3 5.2 62 1008.9 14.5 N 18.3 0.0 0.0
11:59 12.3 5.5 63 1009.0 15.9 W 18.3 0.0 0.0
12:00 12.3 5.5 63 1008.9 11.4 NW 18.3 0.0 0.0
12:01 12.3 5.5 63 1008.9 15.2 W 18.3 0.0 0.0
12:02 12.3 5.5 63 1009.1 15.2 NW 18.3 0.0 0.0
12:03 12.4 5.6 63 1009.1 18.3 WNW 18.3 0.0 0.0
12:04 12.5 4.9 60 1008.9 12.1 W 18.3 0.0 0.0
12:05 12.5 4.9 60 1009.0 11.4 N 18.3 0.0 0.0
12:06 12.6 5.0 60 1008.9 9.2 N 18.3 0.0 0.0
12:07 12.6 5.0 60 1009.1 15.2 W 18.3 0.0 0.0
12:08 12.6 5.0 60 1009.0 15.2 W 18.3 0.0 0.0
12:09 12.7 5.1 60 1009.0 13.0 NW 18.3 0.0 0.0
12:10 12.7 5.1 60 1009.3 11.4 NW 18.3 0.0 0.0
12:11 12.6 4.8 59 1009.1 13.0 NE 18.3 0.0 0.0
12:12 12.6 4.8 59 1009.4 13.0 NW 18.3 0.0 0.0
12:13 12.5 4.7 59 1009.0 15.9 NW 18.3 0.0 0.0
12:14 12.5 4.7 59 1008.9 15.2 NW 15.9 0.0 0.0
12:16 12.4 5.1 61 1009.0 15.9 NE 19.7 0.0 0.0
12:17 12.3 5.0 61 1009.0 15.9 W 19.7 0.0 0.0
12:18 12.3 5.0 61 1009.1 15.9 NW 19.7 0.0 0.0
12:19 12.3 5.0 61 1009.1 14.5 SSW 19.7 0.0 0.0
12:20 12.3 5.0 61 1009.1 13.6 NW 19.7 0.0 0.0
12:21 12.3 5.0 61 1009.1 15.2 NW 19.7 0.0 0.0
12:22 12.3 5.2 62 1009.1 15.2 NW 19.7 0.0 0.0
12:23 12.4 5.3 62 1009.1 16.8 W 19.7 0.0 0.0
12:24 12.4 5.3 62 1009.3 15.9 WNW 19.7 0.0 0.0
12:25 12.5 4.9 60 1009.2 16.8 W 19.7 0.0 0.0
12:26 12.5 4.9 60 1009.3 15.2 NW 18.3 0.0 0.0
12:27 12.6 4.8 59 1009.2 15.9 N 18.3 0.0 0.0
12:28 12.6 4.8 59 1009.3 13.6 W 18.3 0.0 0.0
12:29 12.7 5.1 60 1009.3 11.4 NW 18.3 0.0 0.0
12:30 12.7 5.1 60 1009.2 13.0 NW 16.8 0.0 0.0
12:32 12.8 5.0 59 1009.3 15.2 NW 16.8 0.0 0.0
12:33 12.8 5.0 59 1009.1 9.2 SE 16.8 0.0 0.0
12:34 12.8 5.0 59 1009.0 9.2 N 16.8 0.0 0.0
12:35 12.8 5.0 59 1009.2 14.5 N 15.9 0.0 0.0
12:36 12.8 5.0 59 1009.1 9.2 W 15.9 0.0 0.0
12:37 12.7 4.9 59 1009.4 12.1 W 15.9 0.0 0.0
12:38 12.7 4.9 59 1009.2 9.2 W 15.2 0.0 0.0
12:39 12.7 4.9 59 1009.3 12.1 NW 15.2 0.0 0.0
12:40 12.8 5.0 59 1009.1 13.0 SW 15.2 0.0 0.0
12:41 12.8 5.0 59 1009.3 10.7 NW 15.2 0.0 0.0
12:42 12.8 5.0 59 1009.1 18.3 NW 18.3 0.0 0.0
12:43 12.8 5.0 59 1009.1 16.8 E 18.3 0.0 0.0
12:44 12.8 5.0 59 1009.1 9.8 N 18.3 0.0 0.0
12:45 12.8 4.7 58 1009.1 13.6 NW 18.3 0.0 0.0
12:47 12.8 4.5 57 1009.1 16.8 N 18.3 0.0 0.0
12:48 12.7 4.4 57 1009.3 13.6 NE 18.3 0.0 0.0
12:49 12.7 4.4 57 1009.3 10.7 N 18.3 0.0 0.0
12:50 12.8 4.5 57 1009.2 13.0 N 18.3 0.0 0.0
12:51 12.7 4.4 57 1009.4 14.5 NW 18.3 0.0 0.0
12:52 12.7 4.4 57 1009.4 14.5 NW 18.3 0.0 0.0
12:53 12.7 4.4 57 1009.2 14.5 NW 18.3 0.0 0.0
12:54 12.6 4.1 56 1009.0 13.0 NW 18.3 0.0 0.0
12:55 12.6 4.1 56 1009.4 13.0 W 18.3 0.0 0.0
12:56 12.6 4.3 57 1009.2 14.5 W 18.3 0.0 0.0
12:57 12.6 4.3 57 1009.3 12.1 NW 18.3 0.0 0.0
12:58 12.6 4.3 57 1009.2 11.4 W 16.8 0.0 0.0
12:59 12.6 4.6 58 1009.4 9.8 N 15.2 0.0 0.0
13:00 12.7 4.9 59 1009.4 11.4 NW 15.2 0.0 0.0
13:02 12.7 4.9 59 1009.2 11.4 NW 15.2 0.0 0.0
13:03 12.7 4.9 59 1009.2 11.4 NW 15.2 0.0 0.0
13:04 12.7 4.9 59 1009.4 11.4 NW 15.2 0.0 0.0
13:05 12.7 4.9 59 1009.3 11.4 NW 15.2 0.0 0.0
13:06 12.7 4.9 59 1009.3 11.4 NW 15.2 0.0 0.0
13:07 13.0 5.2 59 1009.2 19.7 S 19.7 0.0 0.0
13:08 13.0 5.2 59 1009.3 10.7 W 19.7 0.0 0.0
13:09 13.0 5.2 59 1009.1 10.7 W 19.7 0.0 0.0
13:10 13.0 4.9 58 1009.4 15.2 W 19.7 0.0 0.0
13:11 13.0 4.7 57 1009.4 15.2 NW 19.7 0.0 0.0
13:12 13.0 4.7 57 1009.6 9.2 N 19.7 0.0 0.0
13:13 13.0 4.4 56 1009.4 9.8 NW 19.7 0.0 0.0
13:14 13.0 4.4 56 1009.4 12.1 WNW 19.7 0.0 0.0
13:15 13.0 4.2 55 1009.4 15.2 N 19.7 0.0 0.0
13:16 13.0 4.2 55 1009.4 13.6 NW 19.7 0.0 0.0
13:17 13.0 4.2 55 1009.2 15.9 NW 19.7 0.0 0.0
13:18 13.0 3.9 54 1009.3 15.2 NW 18.3 0.0 0.0
13:19 12.9 3.8 54 1009.4 13.0 N 18.3 0.0 0.0
13:20 12.9 3.8 54 1009.3 17.4 N 18.3 0.0 0.0
13:22 12.8 3.7 54 1009.2 14.5 NW 18.3 0.0 0.0
13:23 12.7 3.6 54 1009.3 13.6 N 18.3 0.0 0.0
13:24 12.6 3.5 54 1009.4 12.1 SW 18.3 0.0 0.0
13:25 12.6 3.5 54 1009.5 18.3 WNW 18.3 0.0 0.0
13:26 12.6 3.5 54 1009.1 15.9 N 18.3 0.0 0.0
13:27 12.6 3.5 54 1009.3 12.1 NW 18.3 0.0 0.0
13:28 12.7 3.6 54 1009.6 15.9 N 18.3 0.0 0.0
13:29 12.7 3.6 54 1009.5 12.1 W 18.3 0.0 0.0
13:30 12.7 3.6 54 1009.1 14.5 W 18.3 0.0 0.0
13:31 12.8 4.0 55 1009.2 14.5 W 18.3 0.0 0.0
13:32 12.8 4.0 55 1009.3 9.8 W 18.3 0.0 0.0
13:33 12.9 4.3 56 1009.4 13.6 NW 18.3 0.0 0.0
13:34 12.9 4.3 56 1009.4 14.5 SW 18.3 0.0 0.0
13:35 12.9 4.1 55 1009.3 13.6 NW 18.3 0.0 0.0
13:36 12.9 3.8 54 1009.4 16.8 N 16.8 0.0 0.0
13:37 12.8 3.2 52 1009.2 9.2 E 16.8 0.0 0.0
13:39 12.8 3.5 53 1009.5 13.6 NW 16.8 0.0 0.0
13:40 12.9 3.6 53 1009.3 15.9 N 16.8 0.0 0.0
13:41 12.9 3.6 53 1009.4 10.7 NW 16.8 0.0 0.0
13:42 12.9 3.8 54 1009.5 10.7 W 16.8 0.0 0.0
13:43 12.9 4.1 55 1009.3 18.3 W 18.3 0.0 0.0
13:44 12.9 4.1 55 1009.3 12.1 W 18.3 0.0 0.0
13:45 13.0 4.2 55 1009.4 13.6 NW 18.3 0.0 0.0
13:46 13.0 4.2 55 1009.5 15.2 NW 18.3 0.0 0.0
13:47 13.0 4.2 55 1009.6 11.4 NW 18.3 0.0 0.0
13:48 13.1 4.3 55 1009.5 14.5 W 18.3 0.0 0.0
13:49 13.1 4.3 55 1009.4 16.8 SE 18.3 0.0 0.0
13:50 13.1 4.3 55 1009.3 16.8 NW 18.3 0.0 0.0
13:51 13.1 4.0 54 1009.5 13.6 SW 18.3 0.0 0.0
13:52 13.1 4.0 54 1009.4 13.0 W 18.3 0.0 0.0
13:53 13.1 4.0 54 1009.3 13.6 SW 18.3 0.0 0.0
13:55 13.2 3.8 53 1009.4 19.0 NW 19.0 0.0 0.0
13:56 13.1 3.7 53 1009.3 16.8 N 19.0 0.0 0.0
13:57 13.1 3.7 53 1009.5 19.0 NW 19.0 0.0 0.0
13:58 13.0 3.4 52 1009.4 18.3 WNW 19.0 0.0 0.0
13:59 12.9 3.3 52 1009.4 20.6 W 20.6 0.0 0.0
14:00 12.9 3.3 52 1009.4 20.6 W 20.6 0.0 0.0
14:01 12.8 3.2 52 1009.6 13.6 NW 20.6 0.0 0.0
14:02 12.8 3.2 52 1009.3 19.0 N 20.6 0.0 0.0
14:03 12.7 3.1 52 1009.4 15.9 NW 20.6 0.0 0.0
14:04 12.7 3.1 52 1009.5 14.5 W 20.6 0.0 0.0
14:05 12.7 3.4 53 1009.4 12.1 W 20.6 0.0 0.0
14:06 12.7 3.4 53 1009.4 14.5 NW 20.6 0.0 0.0
14:07 12.7 3.6 54 1009.4 14.5 NW 20.6 0.0 0.0
14:08 12.7 3.6 54 1009.5 9.2 NW 20.6 0.0 0.0
14:09 12.7 3.9 55 1009.3 15.9 NW 20.6 0.0 0.0
14:11 12.6 3.5 54 1009.6 19.0 W 19.0 0.0 0.0
14:12 12.4 4.1 57 1009.4 15.9 NW 19.0 0.0 0.0
14:13 12.3 4.0 57 1009.4 15.2 N 19.0 0.0 0.0
14:14 12.2 3.9 57 1009.6 14.5 N 19.0 0.0 0.0
14:15 12.3 4.5 59 1009.5 15.9 N 19.0 0.0 0.0
14:16 12.3 4.5 59 1009.5 15.9 N 19.0 0.0 0.0
14:17 12.4 4.6 59 1009.6 12.1 NW 19.0 0.0 0.0
14:18 12.4 4.6 59 1009.6 11.4 W 19.0 0.0 0.0
14:19 12.4 4.6 59 1009.5 11.4 W 19.0 0.0 0.0
14:20 12.5 4.2 57 1009.6 9.2 W 19.0 0.0 0.0
14:21 12.6 4.6 58 1009.5 9.2 NW 19.0 0.0 0.0
14:22 12.6 4.1 56 1009.9 17.4 NW 17.4 0.0 0.0
14:23 12.6 3.8 55 1009.5 18.3 NW 18.3 0.0 0.0
14:24 12.4 4.4 58 1009.5 21.3 NW 21.3 0.0 0.0
14:26 12.3 4.5 59 1009.4 15.2 NW 21.3 0.0 0.0
14:27 12.2 4.4 59 1009.6 19.7 NW 21.3 0.0 0.0
14:28 12.2 4.4 59 1009.5 19.7 NW 21.3 0.0 0.0
14:29 12.2 4.2 58 1009.5 14.5 NW 21.3 0.0 0.0
14:30 12.1 4.1 58 1009.3 16.8 NW 21.3 0.0 0.0
14:31 12.1 4.1 58 1009.6 16.8 NW 21.3 0.0 0.0
14:32 12.1 4.1 58 1009.4 13.0 NE 21.3 0.0 0.0
14:33 12.1 4.3 59 1009.4 19.0 NW 21.3 0.0 0.0
14:34 12.0 4.2 59 1009.5 19.0 NW 21.3 0.0 0.0
14:35 12.0 4.2 59 1009.4 19.0 SW 19.7 0.0 0.0
14:36 11.9 4.1 59 1009.5 13.0 W 19.7 0.0 0.0
14:37 11.9 4.1 59 1009.5 9.2 NW 19.7 0.0 0.0
14:38 11.9 4.1 59 1009.6 15.2 W 19.7 0.0 0.0
14:39 12.0 4.5 60 1009.4 15.2 N 19.0 0.0 0.0
14:41 12.1 4.6 60 1009.7 18.3 W 19.7 0.0 0.0
14:42 12.1 4.6 60 1009.6 17.4 NW 19.7 0.0 0.0
14:43 12.3 5.0 61 1009.7 13.6 NW 19.7 0.0 0.0
14:44 12.3 5.0 61 1009.7 12.1 NW 19.7 0.0 0.0
14:45 12.4 5.1 61 1009.6 15.9 W 19.7 0.0 0.0
14:46 12.4 4.9 60 1009.6 15.2 N 19.7 0.0 0.0
14:47 12.4 4.9 60 1009.5 15.2 W 19.7 0.0 0.0
14:48 12.4 4.9 60 1009.6 19.0 NW 19.7 0.0 0.0
14:49 12.4 4.6 59 1009.6 18.3 NE 19.7 0.0 0.0
14:50 12.4 4.6 59 1009.6 15.2 N 19.7 0.0 0.0
14:51 12.4 4.6 59 1009.6 13.0 NW 19.0 0.0 0.0
14:52 12.3 4.5 59 1009.7 9.8 NW 19.0 0.0 0.0
14:53 12.3 4.5 59 1009.5 15.2 NW 19.0 0.0 0.0
14:54 12.3 4.3 58 1009.6 15.9 N 19.0 0.0 0.0
14:55 12.4 4.4 58 1009.6 14.5 W 19.0 0.0 0.0
14:57 12.4 4.6 59 1009.6 13.6 NW 19.0 0.0 0.0
14:58 12.4 4.6 59 1009.7 11.4 NW 19.0 0.0 0.0
14:59 12.6 4.1 56 1009.5 11.4 W 15.9 0.0 0.0
15:00 12.6 4.1 56 1009.8 11.4 W 15.9 0.0 0.0
15:01 12.6 4.1 56 1009.8 11.4 W 15.9 0.0 0.0
15:02 12.6 4.1 56 1009.5 11.4 W 15.9 0.0 0.0
15:03 12.6 4.1 56 1009.8 11.4 W 15.9 0.0 0.0
15:04 12.6 4.1 56 1009.7 11.4 W 15.9 0.0 0.0
15:05 12.6 4.1 56 1009.6 11.4 W 15.9 0.0 0.0
15:06 12.6 4.1 56 1009.4 11.4 W 13.6 0.0 0.0
15:07 12.4 4.6 59 1009.8 15.9 SW 15.9 0.0 0.0
15:08 12.4 4.6 59 1009.5 15.9 NW 15.9 0.0 0.0
15:09 12.5 4.0 56 1009.7 7.6 W 15.9 0.0 0.0
15:11 12.8 4.7 58 1009.4 18.3 WNW 18.3 0.0 0.0
15:12 12.9 4.6 57 1009.7 17.4 SW 18.3 0.0 0.0
15:13 13.0 4.7 57 1009.7 13.6 NW 18.3 0.0 0.0
15:14 13.0 4.4 56 1009.6 11.4 NW 18.3 0.0 0.0
15:15 13.0 4.2 55 1009.8 19.0 NW 19.0 0.0 0.0
15:16 13.0 4.2 55 1009.5 22.1 NW 22.1 0.0 0.0
15:18 12.9 3.8 54 1009.8 16.8 NW 22.1 0.0 0.0
15:19 12.8 3.5 53 1010.1 13.6 SW 24.4 0.0 0.0
15:20 12.7 3.4 53 1009.8 13.6 W 24.4 0.0 0.0
15:21 12.6 3.3 53 1009.7 15.9 NW 24.4 0.0 0.0
15:22 12.6 3.3 53 1009.7 18.3 NW 24.4 0.0 0.0
15:23 12.5 3.2 53 1009.8 15.2 NW 24.4 0.0 0.0
15:24 12.5 3.2 53 1009.8 15.9 W 24.4 0.0 0.0
15:25 12.5 3.2 53 1009.6 19.0 N 24.4 0.0 0.0
15:26 12.4 4.1 57 1009.7 15.9 NW 24.4 0.0 0.0
15:27 12.4 4.1 57 1009.7 11.4 SW 24.4 0.0 0.0
15:28 12.3 4.0 57 1009.8 14.5 NW 24.4 0.0 0.0
15:29 12.3 3.8 56 1009.7 15.9 NW 24.4 0.0 0.0
15:30 12.2 3.7 56 1009.6 15.9 E 19.0 0.0 0.0
15:31 12.2 3.7 56 1010.0 19.0 W 19.0 0.0 0.0
15:33 12.2 3.9 57 1009.9 14.5 W 19.0 0.0 0.0
15:34 12.2 3.9 57 1009.6 15.9 NW 19.0 0.0 0.0
15:35 12.3 4.3 58 1009.9 12.1 NE 19.0 0.0 0.0
15:36 12.3 4.3 58 1010.1 12.1 N 19.0 0.0 0.0
15:37 12.4 4.4 58 1009.9 15.2 NE 19.0 0.0 0.0
15:38 12.4 4.1 57 1010.0 19.7 N 19.7 0.0 0.0
15:39 12.4 4.1 57 1010.1 15.2 NNW 19.7 0.0 0.0
15:40 12.3 4.0 57 1010.0 15.2 N 19.7 0.0 0.0
15:41 12.3 3.8 56 1009.8 16.8 W 19.7 0.0 0.0
15:42 12.2 3.9 57 1009.9 13.0 W 19.7 0.0 0.0
15:43 12.2 3.9 57 1009.8 14.5 W 19.7 0.0 0.0
15:44 12.2 4.2 58 1009.7 15.2 W 19.7 0.0 0.0
15:45 12.2 4.2 58 1009.8 17.4 NW 19.7 0.0 0.0
15:47 12.2 3.9 57 1009.8 15.9 NW 19.7 0.0 0.0
15:48 12.3 4.0 57 1009.7 15.9 WNW 17.4 0.0 0.0
15:49 12.3 4.0 57 1009.9 15.9 WNW 17.4 0.0 0.0
15:50 12.3 4.0 57 1009.9 18.3 N 18.3 0.0 0.0
15:51 12.3 3.8 56 1009.5 13.6 N 18.3 0.0 0.0
15:52 12.3 3.8 56 1009.5 13.6 N 18.3 0.0 0.0
15:53 12.3 3.8 56 1009.7 15.2 NW 18.3 0.0 0.0
15:54 12.4 4.1 57 1009.6 9.2 NW 18.3 0.0 0.0
15:55 12.4 4.4 58 1009.9 12.1 N 18.3 0.0 0.0
15:56 12.5 3.4 54 1009.6 16.8 NE 18.3 0.0 0.0
15:57 12.7 3.6 54 1009.7 11.4 W 18.3 0.0 0.0
15:58 12.8 3.7 54 1009.8 12.1 NNW 18.3 0.0 0.0
15:59 12.9 3.8 54 1009.7 20.6 NW 20.6 0.0 0.0
16:00 13.0 3.9 54 1009.8 16.8 N 20.6 0.0 0.0
16:02 13.1 3.7 53 1009.7 15.9 NW 20.6 0.0 0.0
16:03 13.1 3.7 53 1009.9 19.7 WNW 20.6 0.0 0.0
16:04 13.1 3.5 52 1010.0 22.1 W 22.1 0.0 0.0
16:05 13.0 3.4 52 1009.8 22.1 WNW 22.1 0.0 0.0
16:06 12.9 3.3 52 1009.7 18.3 WNW 22.1 0.0 0.0
16:07 12.8 3.2 52 1009.7 19.7 NW 22.8 0.0 0.0
16:08 12.8 3.2 52 1009.7 19.7 NW 22.8 0.0 0.0
16:09 12.7 3.1 52 1009.8 17.4 W 22.8 0.0 0.0
16:10 12.7 3.4 53 1009.9 16.8 W 22.8 0.0 0.0
16:11 12.7 3.4 53 1009.8 18.3 WNW 22.8 0.0 0.0
16:12 12.7 3.4 53 1009.6 18.3 NW 22.8 0.0 0.0
16:13 12.7 3.4 53 1009.9 21.3 NW 22.8 0.0 0.0
16:14 12.7 3.4 53 1009.8 19.0 NW 22.8 0.0 0.0
16:15 12.7 3.4 53 1009.9 18.3 NW 22.8 0.0 0.0
16:16 12.7 3.6 54 1009.8 15.9 W 22.8 0.0 0.0
16:18 12.7 3.6 54 1009.9 17.4 NW 21.3 0.0 0.0
16:19 12.8 3.7 54 1009.8 14.5 W 21.3 0.0 0.0
16:20 12.8 3.7 54 1009.8 17.4 SW 21.3 0.0 0.0
16:21 12.8 3.7 54 1009.8 19.7 SW 21.3 0.0 0.0
16:22 12.8 3.7 54 1009.8 19.7 W 21.3 0.0 0.0
16:23 12.8 3.7 54 1010.0 19.0 NW 21.3 0.0 0.0
16:24 12.8 3.7 54 1009.8 15.9 NW 19.7 0.0 0.0
16:25 12.8 3.7 54 1009.7 15.9 NW 19.7 0.0 0.0
16:26 12.8 4.0 55 1009.9 9.8 N 19.7 0.0 0.0
16:27 12.8 4.0 55 1009.7 15.9 NE 19.7 0.0 0.0
16:28 12.8 4.0 55 1009.8 19.0 W 19.7 0.0 0.0
16:29 12.7 3.9 55 1009.7 12.1 NW 19.7 0.0 0.0
16:30 12.7 3.9 55 1009.7 18.3 NW 19.7 0.0 0.0
16:31 12.6 3.5 54 1009.9 13.6 NW 19.7 0.0 0.0
16:32 12.5 3.4 54 1010.0 12.1 SW 19.0 0.0 0.0
16:34 12.4 4.4 58 1009.7 13.0 SW 19.0 0.0 0.0
16:35 12.2 4.2 58 1009.8 14.5 N 19.0 0.0 0.0
16:36 12.2 4.4 59 1010.0 17.4 W 19.0 0.0 0.0
16:37 12.1 4.3 59 1009.9 13.6 N 19.0 0.0 0.0
16:38 12.1 4.3 59 1009.9 15.9 NW 18.3 0.0 0.0
16:39 12.1 4.3 59 1010.0 15.9 NW 18.3 0.0 0.0
16:40 12.0 4.5 60 1009.9 17.4 W 18.3 0.0 0.0
16:41 12.0 4.5 60 1009.7 17.4 N 17.4 0.0 0.0
16:42 12.0 4.5 60 1009.8 19.7 NW 19.7 0.0 0.0
16:43 12.0 4.2 59 1009.7 14.5 NW 19.7 0.0 0.0
16:44 11.9 4.4 60 1009.7 15.9 NW 19.7 0.0 0.0
16:45 11.8 4.3 60 1010.0 14.5 WNW 19.7 0.0 0.0
16:46 11.8 4.3 60 1010.0 9.8 NW 19.7 0.0 0.0
16:48 11.9 4.6 61 1009.7 18.3 W 19.7 0.0 0.0
16:49 12.0 4.7 61 1009.8 13.6 W 19.7 0.0 0.0
16:50 12.0 4.7 61 1009.7 17.4 W 19.7 0.0 0.0
16:51 12.1 4.8 61 1009.8 25.9 W 25.9 0.0 0.0
16:52 12.2 4.9 61 1009.9 16.8 NW 25.9 0.0 0.0
16:53 12.3 5.0 61 1010.0 18.3 NW 25.9 0.0 0.0
16:54 12.3 4.8 60 1009.8 20.6 WSW 25.9 0.0 0.0
16:55 12.3 4.8 60 1009.8 16.8 NW 25.9 0.0 0.0
16:56 12.3 4.8 60 1009.9 9.8 NW 25.9 0.0 0.0
16:57 12.3 4.8 60 1009.8 11.4 N 25.9 0.0 0.0
16:58 12.4 4.9 60 1009.9 19.7 W 25.9 0.0 0.0
16:59 12.4 4.9 60 1009.9 15.2 N 25.9 0.0 0.0
17:00 12.4 4.9 60 1009.8 19.7 W 25.9 0.0 0.0
17:01 12.4 4.9 60 1009.8 19.7 W 25.9 0.0 0.0
17:02 12.4 4.9 60 1010.1 19.7 W 20.6 0.0 0.0
17:04 12.4 4.9 60 1009.9 19.7 W 19.7 0.0 0.0
17:05 12.4 4.9 60 1010.1 19.7 W 19.7 0.0 0.0
17:06 12.4 4.9 60 1009.9 19.7 W 19.7 0.0 0.0
17:07 12.3 4.8 60 1009.6 13.6 NW 19.7 0.0 0.0
17:08 12.4 4.9 60 1009.7 14.5 W 19.7 0.0 0.0
17:09 12.4 4.9 60 1009.9 19.7 NW 19.7 0.0 0.0
17:10 12.4 4.9 60 1009.9 14.5 NW 19.7 0.0 0.0
17:11 12.4 4.9 60 1009.9 13.0 NW 19.7 0.0 0.0
17:12 12.3 4.8 60 1010.0 13.0 N 19.7 0.0 0.0
17:13 12.2 4.4 59 1009.9 15.2 W 19.7 0.0 0.0
17:14 12.2 4.4 59 1010.1 15.9 W 19.7 0.0 0.0
17:15 12.1 4.3 59 1009.9 16.8 NW 19.7 0.0 0.0
17:16 12.1 4.3 59 1009.8 19.7 NW 19.7 0.0 0.0
17:17 11.9 4.1 59 1009.9 13.0 NW 19.7 0.0 0.0
17:18 11.9 4.1 59 1010.0 17.4 NW 19.7 0.0 0.0
17:19 11.8 4.1 59 1010.0 11.4 W 19.7 0.0 0.0
17:20 11.8 4.1 59 1010.2 10.7 W 19.7 0.0 0.0
17:21 11.9 4.4 60 1010.1 15.2 W 19.7 0.0 0.0
17:22 11.9 4.4 60 1010.0 19.0 NW 19.7 0.0 0.0
17:23 12.0 4.5 60 1009.9 19.0 WNW 19.7 0.0 0.0
17:24 12.0 4.5 60 1010.1 21.3 NW 21.3 0.0 0.0
17:25 12.0 4.5 60 1010.0 12.1 W 21.3 0.0 0.0
17:26 12.0 4.5 60 1009.9 12.1 W 21.3 0.0 0.0
17:27 12.0 4.5 60 1010.0 12.1 W 21.3 0.0 0.0
17:28 12.0 4.5 60 1010.1 12.1 N 21.3 0.0 0.0
17:29 11.9 4.4 60 1010.0 12.1 NW 21.3 0.0 0.0
17:30 11.9 4.4 60 1009.9 14.5 NW 21.3 0.0 0.0
17:32 11.9 4.4 60 1010.0 10.7 W 21.3 0.0 0.0
17:33 11.8 4.3 60 1009.9 12.1 N 21.3 0.0 0.0
17:34 11.8 4.3 60 1010.2 13.6 W 18.3 0.0 0.0
17:35 12.0 4.7 61 1010.0 9.8 W 15.9 0.0 0.0
17:36 12.0 4.7 61 1009.9 18.3 W 18.3 0.0 0.0
17:37 12.1 4.8 61 1010.0 22.8 W 22.8 0.0 0.0
17:38 12.1 4.8 61 1010.0 16.8 W 22.8 0.0 0.0
17:39 12.1 4.8 61 1010.1 18.3 NW 22.8 0.0 0.0
17:40 12.1 4.6 60 1010.1 15.2 N 22.8 0.0 0.0
17:41 12.1 4.6 60 1010.1 15.2 SE 22.8 0.0 0.0
17:42 12.0 4.5 60 1010.1 19.7 NW 22.8 0.0 0.0
17:43 11.9 4.4 60 1010.1 12.1 NE 22.8 0.0 0.0
17:44 11.9 4.4 60 1010.1 13.0 W 22.8 0.0 0.0
17:46 11.9 4.4 60 1010.1 15.2 NW 22.8 0.0 0.0
17:47 11.8 4.1 59 1010.0 13.0 W 19.7 0.0 0.0
17:48 11.7 4.0 59 1009.8 12.1 E 19.7 0.0 0.0
17:49 11.7 4.0 59 1010.2 8.3 W 19.7 0.0 0.0
17:50 11.6 4.1 60 1010.0 10.7 NW 19.7 0.0 0.0
17:51 11.6 4.1 60 1010.0 12.1 N 19.7 0.0 0.0
17:52 11.5 4.0 60 1010.0 11.4 NW 19.7 0.0 0.0
17:53 11.4 3.9 60 1010.3 13.6 NNW 17.4 0.0 0.0
17:54 11.4 3.9 60 1009.9 10.7 W 17.4 0.0 0.0
17:55 11.4 3.9 60 1009.9 13.0 W 17.4 0.0 0.0
17:56 11.5 4.0 60 1009.9 13.6 W 15.2 0.0 0.0
17:57 11.6 4.1 60 1009.9 14.5 W 15.2 0.0 0.0
17:58 11.7 4.2 60 1010.0 17.4 W 17.4 0.0 0.0
18:00 11.8 4.3 60 1009.8 16.8 WNW 19.0 0.0 0.0
18:01 11.8 4.3 60 1009.8 15.2 NW 19.0 0.0 0.0
18:02 11.8 4.3 60 1009.9 16.8 W 19.0 0.0 0.0
18:03 11.9 4.4 60 1009.9 13.6 W 19.0 0.0 0.0
18:04 12.0 4.5 60 1010.0 15.2 N 19.0 0.0 0.0
18:05 12.0 4.5 60 1009.8 14.5 NW 19.0 0.0 0.0
18:06 12.0 4.5 60 1009.7 14.5 W 19.0 0.0 0.0
18:07 12.1 4.6 60 1010.0 12.1 W 19.0 0.0 0.0
18:08 12.1 4.6 60 1009.8 12.1 W 19.0 0.0 0.0
18:09 12.2 4.7 60 1009.8 12.1 NW 19.0 0.0 0.0
18:10 12.2 4.7 60 1009.7 12.1 W 16.8 0.0 0.0
18:11 12.2 4.7 60 1010.0 10.7 NW 16.8 0.0 0.0
18:12 12.2 4.7 60 1010.0 12.1 NW 16.8 0.0 0.0
18:13 12.2 4.7 60 1010.0 15.2 NW 15.9 0.0 0.0
18:15 12.1 4.6 60 1009.8 12.1 W 15.9 0.0 0.0
18:16 12.1 4.6 60 1010.0 13.6 NW 15.9 0.0 0.0
18:17 12.0 4.5 60 1009.9 18.3 W 18.3 0.0 0.0
18:18 12.0 4.5 60 1009.8 14.5 NW 18.3 0.0 0.0
18:19 11.8 4.1 59 1010.0 17.4 NE 18.3 0.0 0.0
18:20 11.8 4.1 59 1010.0 17.4 NE 18.3 0.0 0.0
18:21 11.7 4.0 59 1009.9 9.2 NW 18.3 0.0 0.0
18:22 11.7 4.2 60 1009.9 15.2 NW 18.3 0.0 0.0
18:23 11.7 4.2 60 1010.0 14.5 N 18.3 0.0 0.0
18:24 11.8 4.3 60 1009.9 15.2 N 18.3 0.0 0.0
18:25 11.8 4.3 60 1009.8 10.7 NW 18.3 0.0 0.0
18:26 11.9 4.4 60 1009.8 11.4 W 18.3 0.0 0.0
18:27 11.9 4.4 60 1009.7 11.4 W 18.3 0.0 0.0
18:29 12.1 4.8 61 1009.8 13.6 W 17.4 0.0 0.0
18:30 12.1 4.8 61 1010.0 8.3 W 15.2 0.0 0.0
18:31 12.1 4.8 61 1009.8 17.4 W 17.4 0.0 0.0
18:32 12.2 4.9 61 1009.9 12.1 NW 17.4 0.0 0.0
18:33 12.2 4.7 60 1009.9 8.3 W 17.4 0.0 0.0
18:34 12.2 4.7 60 1009.9 9.2 NW 17.4 0.0 0.0
18:35 12.3 4.8 60 1009.8 13.6 W 17.4 0.0 0.0
18:36 12.3 4.8 60 1009.7 13.6 W 17.4 0.0 0.0
18:37 12.3 4.8 60 1009.8 12.1 NW 17.4 0.0 0.0
18:38 12.3 4.8 60 1009.8 12.1 NW 17.4 0.0 0.0
18:39 12.3 4.8 60 1009.9 8.3 NW 17.4 0.0 0.0
18:40 12.3 4.8 60 1009.9 10.7 NW 17.4 0.0 0.0
18:41 12.4 4.9 60 1010.1 10.7 N 17.4 0.0 0.0
18:42 12.4 4.9 60 1009.8 17.4 W 17.4 0.0 0.0
18:44 12.4 4.9 60 1010.0 20.6 W 20.6 0.0 0.0
18:45 12.4 4.9 60 1009.9 22.1 W 22.1 0.0 0.0
18:46 12.3 4.8 60 1009.6 19.7 NW 22.1 0.0 0.0
18:47 12.1 4.6 60 1009.8 17.4 W 22.1 0.0 0.0
18:48 12.1 4.6 60 1010.0 17.4 W 22.1 0.0 0.0
18:49 12.0 4.5 60 1009.8 16.8 W 22.1 0.0 0.0
18:50 11.9 4.4 60 1009.9 13.6 W 22.1 0.0 0.0
18:51 11.9 4.4 60 1009.9 13.6 W 22.1 0.0 0.0
18:52 11.9 4.4 60 1009.8 15.2 WNW 22.1 0.0 0.0
18:53 11.8 4.3 60 1009.9 15.2 WSW 22.1 0.0 0.0
18:54 11.8 4.3 60 1009.9 15.9 W 22.1 0.0 0.0
18:55 11.7 4.4 61 1009.8 13.6 W 22.1 0.0 0.0
18:56 11.7 4.4 61 1009.7 13.0 W 19.7 0.0 0.0
18:57 11.7 4.4 61 1010.0 14.5 W 17.4 0.0 0.0
18:58 11.7 4.4 61 1010.0 13.0 W 17.4 0.0 0.0
18:59 11.7 4.4 61 1009.8 12.1 NW 16.8 0.0 0.0
19:00 11.7 4.4 61 1010.0 15.9 W 16.8 0.0 0.0
19:02 11.7 4.4 61 1009.9 15.9 W 16.8 0.0 0.0
19:03 11.7 4.4 61 1009.9 15.9 W 15.9 0.0 0.0
19:04 11.7 4.4 61 1009.9 15.9 W 15.9 0.0 0.0
19:05 11.7 4.4 61 1010.0 15.9 W 15.9 0.0 0.0
19:06 11.7 4.4 61 1009.7 15.9 W 15.9 0.0 0.0
19:07 11.5 4.2 61 1009.8 19.7 W 19.7 0.0 0.0
19:08 11.4 4.1 61 1009.8 19.7 WNW 19.7 0.0 0.0
19:09 11.4 4.1 61 1010.1 15.9 WNW 19.7 0.0 0.0
19:10 11.3 4.1 61 1010.1 13.6 SW 19.7 0.0 0.0
19:11 11.3 4.1 61 1010.3 16.8 W 19.7 0.0 0.0
19:12 11.3 4.1 61 1010.0 16.8 W 19.7 0.0 0.0
19:13 11.3 4.1 61 1010.1 10.7 W 19.7 0.0 0.0
19:14 11.2 4.0 61 1010.2 13.6 NW 19.7 0.0 0.0
19:15 11.2 4.0 61 1010.1 15.9 S 19.7 0.0 0.0
19:16 11.2 4.0 61 1010.1 13.0 NW 19.7 0.0 0.0
19:17 11.1 3.9 61 1010.2 12.1 NW 19.7 0.0 0.0
19:18 11.1 3.9 61 1010.1 12.1 W 19.7 0.0 0.0
19:19 11.0 3.8 61 1010.0 16.8 NW 16.8 0.0 0.0
19:20 11.0 3.8 61 1010.1 16.8 NW 16.8 0.0 0.0
19:21 11.0 3.8 61 1010.1 16.8 W 16.8 0.0 0.0
19:22 11.0 3.8 61 1010.0 15.2 W 16.8 0.0 0.0
19:23 11.0 3.8 61 1010.2 19.7 NW 19.7 0.0 0.0
19:24 10.9 3.7 61 1010.1 15.2 W 19.7 0.0 0.0
19:25 10.9 3.7 61 1010.1 14.5 W 19.7 0.0 0.0
19:26 10.9 3.7 61 1009.9 17.4 NW 19.7 0.0 0.0
19:27 10.8 3.6 61 1010.2 13.0 W 19.7 0.0 0.0
19:28 10.8 3.6 61 1009.9 16.8 NW 19.7 0.0 0.0
19:29 10.7 3.5 61 1009.9 13.0 NW 19.7 0.0 0.0
19:30 10.6 3.6 62 1010.1 11.4 SW 19.7 0.0 0.0
19:31 10.6 3.6 62 1010.0 10.7 W 19.7 0.0 0.0
19:32 10.5 3.5 62 1009.8 15.2 WNW 19.7 0.0 0.0
19:33 10.5 3.5 62 1010.0 14.5 W 19.7 0.0 0.0
19:34 10.4 3.4 62 1009.9 15.9 NW 17.4 0.0 0.0
19:37 10.2 3.2 62 1009.7 13.6 WNW 16.8 0.0 0.0
19:38 10.1 3.2 62 1010.2 12.1 W 15.9 0.0 0.0
19:39 10.0 3.3 63 1009.9 13.0 NW 15.9 0.0 0.0
19:40 10.0 3.3 63 1009.9 13.0 W 15.9 0.0 0.0
19:41 9.9 3.2 63 1010.0 13.6 SW 15.9 0.0 0.0
19:42 9.9 3.2 63 1009.9 11.4 NW 15.9 0.0 0.0
19:43 9.8 3.1 63 1010.0 10.7 W 15.9 0.0 0.0
19:44 9.8 3.3 64 1009.8 11.4 W 15.9 0.0 0.0
19:45 9.7 3.2 64 1009.7 6.9 W 15.9 0.0 0.0
19:46 9.7 3.2 64 1009.8 15.9 NW 15.9 0.0 0.0
19:47 9.7 3.4 65 1009.9 15.9 W 15.9 0.0 0.0
19:48 9.7 3.4 65 1009.7 11.4 W 15.9 0.0 0.0
19:49 9.6 3.3 65 1010.0 9.8 N 15.9 0.0 0.0
19:50 9.6 3.6 66 1009.9 12.1 NW 15.9 0.0 0.0
19:51 9.6 3.6 66 1009.8 14.5 NW 15.9 0.0 0.0
19:53 9.6 3.6 66 1010.0 10.7 NW 15.9 0.0 0.0
19:54 9.6 3.8 67 1010.0 11.4 NW 15.9 0.0 0.0
19:55 9.5 3.7 67 1010.0 11.4 NW 15.9 0.0 0.0
19:56 9.5 3.5 66 1010.0 13.6 W 15.9 0.0 0.0
19:57 9.5 3.5 66 1009.8 13.6 W 14.5 0.0 0.0
19:58 9.5 3.5 66 1009.9 17.4 W 17.4 0.0 0.0
19:59 9.5 3.5 66 1010.0 11.4 NW 17.4 0.0 0.0
20:00 9.5 3.5 66 1010.0 15.2 NW 17.4 0.0 0.0
20:01 9.4 3.4 66 1010.1 15.2 NW 17.4 0.0 0.0
20:02 9.4 3.2 65 1009.7 15.9 NW 17.4 0.0 0.0
20:03 9.4 3.2 65 1010.0 15.9 N 17.4 0.0 0.0
20:04 9.3 3.1 65 1010.2 8.3 W 17.4 0.0 0.0
20:05 9.3 2.8 64 1010.2 13.0 N 17.4 0.0 0.0
20:06 9.3 2.8 64 1010.0 9.2 W 17.4 0.0 0.0
20:07 9.3 2.8 64 1010.0 10.7 W 17.4 0.0 0.0
20:08 9.3 2.8 64 1010.0 12.1 NW 17.4 0.0 0.0
20:09 9.3 2.8 64 1010.0 11.4 N 15.9 0.0 0.0
20:10 9.3 2.8 64 1010.1 9.2 W 15.9 0.0 0.0
20:12 9.3 2.8 64 1009.9 8.3 NW 15.9 0.0 0.0
20:13 9.3 2.8 64 1010.1 13.0 NW 13.6 0.0 0.0
20:14 9.3 2.8 64 1010.2 13.0 N 13.6 0.0 0.0
20:15 9.3 2.8 64 1010.2 12.1 N 13.0 0.0 0.0
20:16 9.3 2.8 64 1010.3 10.7 NW 13.0 0.0 0.0
20:17 9.3 2.8 64 1009.9 12.1 NW 13.0 0.0 0.0
20:18 9.3 2.8 64 1010.2 10.7 NW 13.0 0.0 0.0
20:19 9.3 2.8 64 1010.2 5.4 W 13.0 0.0 0.0
20:20 9.3 3.1 65 1010.1 9.8 W 13.0 0.0 0.0
20:21 9.3 3.1 65 1010.1 10.7 W 13.0 0.0 0.0
20:22 9.3 3.1 65 1010.0 14.5 WNW 14.5 0.0 0.0
20:23 9.3 3.1 65 1010.2 17.4 W 17.4 0.0 0.0
20:24 9.3 3.1 65 1010.2 13.6 W 17.4 0.0 0.0
20:25 9.2 3.0 65 1010.2 8.3 NW 17.4 0.0 0.0
20:26 9.2 3.0 65 1010.2 9.2 W 17.4 0.0 0.0
20:27 9.2 3.0 65 1010.2 11.4 W 17.4 0.0 0.0
20:28 9.2 3.0 65 1010.1 11.4 W 17.4 0.0 0.0
20:29 9.1 3.1 66 1010.1 9.8 N 17.4 0.0 0.0
20:31 9.1 3.1 66 1010.2 10.7 N 17.4 0.0 0.0
20:32 9.0 3.0 66 1010.3 10.7 W 17.4 0.0 0.0
20:33 9.0 3.0 66 1010.3 8.3 WNW 13.6 0.0 0.0
20:34 9.0 3.2 67 1010.2 11.4 W 12.1 0.0 0.0
20:35 8.9 3.1 67 1010.2 10.7 W 12.1 0.0 0.0
20:36 8.9 3.1 67 1010.3 13.0 NW 13.0 0.0 0.0
20:37 8.9 3.1 67 1010.1 8.3 W 13.0 0.0 0.0
20:38 8.9 3.1 67 1010.3 8.3 NW 13.0 0.0 0.0
20:39 8.8 3.0 67 1010.1 8.3 W 13.0 0.0 0.0
20:40 8.8 3.0 67 1010.3 15.9 WNW 15.9 0.0 0.0
20:41 8.8 3.2 68 1010.1 15.9 NW 15.9 0.0 0.0
20:42 8.7 3.1 68 1010.3 8.3 W 15.9 0.0 0.0
20:43 8.7 3.1 68 1010.2 11.4 NW 15.9 0.0 0.0
20:44 8.7 3.1 68 1010.1 6.9 NW 15.9 0.0 0.0
20:45 8.6 3.0 68 1010.5 8.3 NW 15.9 0.0 0.0
20:46 8.6 3.0 68 1010.5 8.3 NW 15.9 0.0 0.0
20:48 8.6 3.0 68 1010.1 8.3 NW 15.9 0.0 0.0
20:49 8.6 3.0 68 1010.4 8.3 NW 15.9 0.0 0.0
20:50 8.6 3.2 69 1010.3 9.8 NW 15.9 0.0 0.0
20:51 8.6 3.2 69 1010.3 8.3 NW 11.4 0.0 0.0
20:52 8.5 3.1 69 1010.2 9.2 NW 11.4 0.0 0.0
20:53 8.5 3.1 69 1010.2 11.4 W 11.4 0.0 0.0
20:54 8.5 3.1 69 1010.4 9.2 W 11.4 0.0 0.0
20:55 8.5 3.1 69 1010.1 10.7 W 11.4 0.0 0.0
20:56 8.5 3.1 69 1010.4 14.5 SW 14.5 0.0 0.0
20:57 8.5 3.1 69 1010.6 9.2 W 14.5 0.0 0.0
20:58 8.5 3.1 69 1010.3 9.8 NW 14.5 0.0 0.0
20:59 8.5 3.1 69 1010.2 7.6 NW 14.5 0.0 0.0
21:00 8.5 3.1 69 1010.3 9.8 W 14.5 0.0 0.0
21:01 8.5 3.1 69 1010.2 9.8 W 14.5 0.0 0.0
21:02 8.5 3.1 69 1010.3 9.8 W 14.5 0.0 0.0
21:04 8.5 3.1 69 1010.2 9.8 W 14.5 0.0 0.0
21:05 8.5 3.3 70 1010.3 13.6 W 14.5 0.0 0.0
21:06 8.5 3.3 70 1010.5 14.5 SW 14.5 0.0 0.0
21:07 8.5 3.3 70 1010.4 10.7 W 14.5 0.0 0.0
21:08 8.5 3.3 70 1010.3 10.7 W 14.5 0.0 0.0
21:09 8.5 3.3 70 1010.5 11.4 NW 14.5 0.0 0.0
21:10 8.5 3.3 70 1010.5 14.5 W 14.5 0.0 0.0
21:11 8.5 3.3 70 1010.3 14.5 W 14.5 0.0 0.0
21:12 8.5 3.3 70 1010.6 9.2 NW 14.5 0.0 0.0
21:13 8.5 3.1 69 1010.6 8.3 W 14.5 0.0 0.0
21:14 8.5 3.1 69 1010.6 8.3 W 14.5 0.0 0.0
21:15 8.5 3.1 69 1010.5 9.8 NW 14.5 0.0 0.0
21:16 8.5 3.1 69 1010.4 6.9 W 14.5 0.0 0.0
21:17 8.4 3.0 69 1010.5 11.4 W 14.5 0.0 0.0
21:18 8.4 3.0 69 1010.7 13.0 W 14.5 0.0 0.0
21:19 8.4 3.0 69 1010.7 9.8 NW 14.5 0.0 0.0
21:20 8.4 3.0 69 1010.7 9.2 NW 14.5 0.0 0.0
21:21 8.4 3.0 69 1010.7 13.0 NW 13.0 0.0 0.0
21:22 8.4 3.0 69 1010.5 11.4 NW 13.0 0.0 0.0
21:23 8.4 3.0 69 1010.7 9.2 W 13.0 0.0 0.0
21:24 8.3 3.0 69 1010.7 11.4 W 13.0 0.0 0.0
21:25 8.3 3.0 69 1010.5 9.2 W 13.0 0.0 0.0
21:26 8.3 3.0 69 1010.7 7.6 W 13.0 0.0 0.0
21:27 8.3 3.0 69 1010.4 9.8 N 13.0 0.0 0.0
21:28 8.3 3.0 69 1010.4 6.9 NW 13.0 0.0 0.0
21:29 8.3 3.0 69 1010.7 8.3 N 13.0 0.0 0.0
21:30 8.3 3.0 69 1010.7 6.9 NW 13.0 0.0 0.0
21:31 8.3 3.0 69 1010.7 6.0 NW 13.0 0.0 0.0
21:32 8.2 2.9 69 1010.5 11.4 NW 11.4 0.0 0.0
21:33 8.2 2.9 69 1010.8 6.9 W 11.4 0.0 0.0
21:34 8.2 2.9 69 1010.4 7.6 W 11.4 0.0 0.0
21:35 8.2 2.9 69 1010.5 7.6 W 11.4 0.0 0.0
21:36 8.2 2.9 69 1010.7 9.8 N 11.4 0.0 0.0
21:38 8.2 2.9 69 1010.7 8.3 NW 11.4 0.0 0.0
21:39 8.2 2.9 69 1010.8 11.4 W 13.6 0.0 0.0
21:40 8.1 2.8 69 1010.7 6.9 NW 13.6 0.0 0.0
21:41 8.1 2.8 69 1010.6 4.5 W 13.6 0.0 0.0
21:42 8.1 2.8 69 1010.8 7.6 W 13.6 0.0 0.0
21:43 8.1 2.8 69 1010.5 8.3 W 13.6 0.0 0.0
21:44 8.1 2.8 69 1010.5 8.3 W 13.6 0.0 0.0
21:45 8.1 2.8 69 1010.7 8.3 NNW 13.6 0.0 0.0
21:46 8.1 2.8 69 1010.8 8.3 NNW 13.6 0.0 0.0
21:47 8.1 2.8 69 1010.7 9.8 W 13.6 0.0 0.0
21:48 8.1 2.8 69 1010.7 6.9 W 13.6 0.0 0.0
21:49 8.0 2.7 69 1010.9 9.8 W 14.5 0.0 0.0
21:50 8.0 2.7 69 1010.8 10.7 W 14.5 0.0 0.0
21:51 8.0 2.7 69 1010.8 9.8 NW 14.5 0.0 0.0
21:52 8.0 2.7 69 1010.6 6.9 W 14.5 0.0 0.0
21:54 8.0 2.7 69 1010.8 8.3 NW 14.5 0.0 0.0
21:55 8.0 2.7 69 1010.8 4.5 W 14.5 0.0 0.0
21:56 7.9 2.6 69 1010.6 5.4 W 14.5 0.0 0.0
21:57 8.0 2.7 69 1010.5 6.0 W 14.5 0.0 0.0
21:58 8.0 2.7 69 1010.8 14.5 W 14.5 0.0 0.0
21:59 7.9 2.6 69 1010.6 11.4 W 14.5 0.0 0.0
22:00 7.9 2.6 69 1010.6 11.4 W 14.5 0.0 0.0
22:01 7.9 2.6 69 1010.7 11.4 W 14.5 0.0 0.0
22:02 7.9 2.6 69 1010.7 11.4 W 14.5 0.0 0.0
22:03 7.9 2.6 69 1010.8 11.4 W 14.5 0.0 0.0
22:04 7.9 2.6 69 1010.5 11.4 W 14.5 0.0 0.0
22:05 7.9 2.6 69 1010.6 11.4 W 14.5 0.0 0.0
22:06 7.9 2.6 69 1010.5 11.4 W 14.5 0.0 0.0
22:07 8.1 2.8 69 1010.6 8.3 SW 14.5 0.0 0.0
22:08 8.1 2.8 69 1010.8 9.2 NW 14.5 0.0 0.0
22:10 8.1 2.8 69 1010.7 11.4 N 11.4 0.0 0.0
22:11 8.1 2.8 69 1010.8 9.2 N 11.4 0.0 0.0
22:12 8.2 2.9 69 1010.7 9.2 W 11.4 0.0 0.0
22:13 8.2 2.9 69 1010.6 12.1 NW 12.1 0.0 0.0
22:14 8.2 2.9 69 1010.7 12.1 NW 12.1 0.0 0.0
22:15 8.2 2.9 69 1010.7 8.3 NW 12.1 0.0 0.0
22:16 8.2 2.9 69 1010.7 8.3 NW 12.1 0.0 0.0
22:17 8.2 2.9 69 1010.7 9.2 NW 13.0 0.0 0.0
22:18 8.2 2.9 69 1010.9 7.6 NW 13.0 0.0 0.0
22:19 8.2 2.9 69 1010.7 6.9 NW 13.0 0.0 0.0
22:20 8.3 3.0 69 1010.7 10.7 W 13.0 0.0 0.0
22:21 8.3 3.0 69 1011.0 10.7 W 13.0 0.0 0.0
22:22 8.3 3.0 69 1010.8 9.2 NE 13.0 0.0 0.0
22:23 8.3 3.0 69 1010.6 8.3 W 13.0 0.0 0.0
22:24 8.3 3.0 69 1010.6 5.4 NW 13.0 0.0 0.0
22:25 8.2 2.9 69 1010.8 9.2 NW 13.0 0.0 0.0
22:26 8.2 2.9 69 1010.7 9.8 SW 13.0 0.0 0.0
22:28 8.2 2.9 69 1010.7 6.9 NW 10.7 0.0 0.0
22:29 8.2 2.9 69 1010.9 6.9 NW 10.7 0.0 0.0
22:30 8.2 2.9 69 1010.9 6.0 NW 10.7 0.0 0.0
22:31 8.1 2.8 69 1010.7 6.0 NW 9.8 0.0 0.0
22:32 8.1 2.8 69 1010.7 8.3 NW 9.8 0.0 0.0
22:33 8.1 2.8 69 1010.8 9.2 NW 9.8 0.0 0.0
22:34 8.1 2.8 69 1010.9 7.6 W 9.8 0.0 0.0
22:35 8.1 2.8 69 1010.9 7.6 W 9.8 0.0 0.0
22:36 8.1 3.0 70 1010.9 10.7 NW 10.7 0.0 0.0
22:37 8.1 3.0 70 1010.8 8.3 NW 10.7 0.0 0.0
22:38 8.1 3.0 70 1010.6 7.6 W 10.7 0.0 0.0
22:39 8.1 3.0 70 1010.9 3.8 N 10.7 0.0 0.0
22:40 8.1 3.0 70 1010.7 9.2 W 10.7 0.0 0.0
22:41 8.1 3.0 70 1010.8 7.6 W 10.7 0.0 0.0
22:42 8.1 3.0 70 1010.7 5.4 NE 10.7 0.0 0.0
22:43 8.1 3.0 70 1010.6 5.4 NE 10.7 0.0 0.0
22:44 8.1 3.0 70 1010.7 3.1 W 10.7 0.0 0.0
22:45 8.1 3.0 70 1010.7 8.3 N 10.7 0.0 0.0
22:46 8.0 2.9 70 1011.2 8.3 N 10.7 0.0 0.0
22:47 8.0 2.9 70 1011.0 24.4 W 34.9 0.0 0.0
22:48 7.9 2.8 70 1011.1 17.4 NW 34.9 0.0 0.0
22:49 7.8 2.5 69 1011.2 17.4 WNW 34.9 0.0 0.0
22:51 7.5 2.2 69 1011.4 13.0 NW 34.9 0.0 0.0
22:52 7.5 2.2 69 1011.2 13.0 NW 34.9 0.0 0.0
22:53 7.3 2.6 72 1011.1 5.4 NW 34.9 0.0 0.0
22:54 7.2 2.3 71 1011.1 5.4 W 34.9 0.0 0.0
22:55 7.0 2.1 71 1011.2 13.6 N 34.9 0.0 0.0
22:56 6.9 2.0 71 1011.0 13.6 SW 34.9 0.0 0.0
22:57 6.8 1.9 71 1011.2 9.2 NW 34.9 0.0 0.0
22:58 6.8 1.9 71 1011.0 9.2 NW 19.7 0.0 0.0
22:59 6.6 1.7 71 1011.3 5.4 NE 19.7 0.0 0.0
23:00 6.6 1.7 71 1010.9 6.9 N 19.7 0.0 0.0
23:01 6.6 1.7 71 1011.2 6.9 N 13.6 0.0 0.0
23:02 6.6 1.7 71 1011.0 6.9 N 13.6 0.0 0.0
23:03 6.6 1.7 71 1011.0 6.9 N 13.6 0.0 0.0
23:04 6.6 1.7 71 1011.2 6.9 N 13.6 0.0 0.0
23:05 6.6 1.7 71 1011.0 6.9 N 13.6 0.0 0.0
23:06 6.6 1.7 71 1011.1 6.9 N 13.6 0.0 0.0
23:07 6.3 1.6 72 1011.0 9.8 NW 17.4 0.8 0.1
23:08 6.3 1.8 73 1010.9 9.8 W 17.4 0.8 0.1
23:09 6.3 1.8 73 1010.9 9.2 W 17.4 0.8 0.1
23:10 6.3 1.8 73 1010.8 9.2 W 17.4 0.8 0.1
23:11 6.4 1.9 73 1010.9 9.2 NW 17.4 0.8 0.1
23:12 6.4 1.9 73 1010.8 9.2 NW 17.4 0.0 0.1
23:13 6.4 1.9 73 1010.9 8.3 N 17.4 0.0 0.1
23:14 6.4 2.1 74 1010.9 7.6 NW 17.4 0.0 0.1
23:15 6.4 2.1 74 1011.0 7.6 NNW 17.4 0.0 0.1
23:17 6.4 2.1 74 1010.9 6.9 NW 9.8 0.0 0.1
23:18 6.4 2.1 74 1011.0 4.5 NW 9.8 0.0 0.1
23:19 6.4 2.1 74 1010.8 6.0 NW 9.2 0.0 0.1
23:21 6.4 2.1 74 1010.8 4.5 NW 9.2 0.0 0.1
23:22 6.3 2.0 74 1010.9 3.8 W 9.2 0.0 0.1
23:23 6.3 2.0 74 1011.0 6.0 NW 8.3 0.0 0.1
23:24 6.3 2.0 74 1010.8 6.0 NW 8.3 0.0 0.1
23:25 6.3 2.2 75 1010.9 6.9 N 8.3 0.0 0.1
23:26 6.3 2.2 75 1011.0 5.4 NW 8.3 0.0 0.1
23:27 6.3 2.2 75 1010.9 5.4 W 6.9 0.0 0.1
23:28 6.3 2.2 75 1010.8 5.4 W 6.9 0.0 0.1
23:29 6.2 2.1 75 1010.7 6.0 NNW 6.9 0.0 0.1
23:31 6.2 2.1 75 1010.8 4.5 N 6.9 0.0 0.1
23:32 6.2 2.3 76 1010.7 3.8 NW 6.9 0.0 0.1
23:33 6.2 2.3 76 1010.7 3.8 NW 6.9 0.0 0.1
23:34 6.2 2.3 76 1010.9 3.1 NW 6.9 0.0 0.1
23:35 6.3 2.4 76 1011.0 7.6 W 7.6 0.0 0.1
23:36 6.3 2.4 76 1011.0 11.4 N 11.4 0.0 0.1
23:37 6.3 2.4 76 1010.9 11.4 NE 11.4 0.0 0.1
23:38 6.3 2.6 77 1010.9 6.0 NW 11.4 0.0 0.1
23:39 6.3 2.6 77 1010.9 6.0 NW 11.4 0.0 0.1
23:40 6.3 2.6 77 1010.9 12.1 NE 12.1 0.0 0.1
23:41 6.3 2.6 77 1010.8 8.3 NW 12.1 0.0 0.1
23:42 6.4 2.7 77 1010.9 6.0 W 12.1 0.0 0.1
23:43 6.4 2.7 77 1010.9 6.0 NW 12.1 0.0 0.1
23:44 6.4 2.7 77 1011.1 9.8 SW 12.1 0.0 0.1
23:45 6.4 2.5 76 1011.0 9.8 N 12.1 0.0 0.1
23:46 6.4 2.5 76 1011.1 7.6 W 12.1 0.0 0.1
23:47 6.4 2.5 76 1011.0 9.8 NW 12.1 0.0 0.1
23:49 6.5 2.4 75 1010.9 7.6 NW 12.1 0.0 0.1
23:50 6.5 2.4 75 1010.8 9.2 W 9.8 0.0 0.1
23:51 6.5 2.2 74 1010.9 6.9 WNW 9.8 0.0 0.1
23:52 6.5 2.2 74 1011.0 6.9 NE 9.8 0.0 0.1
23:53 6.5 2.2 74 1011.0 7.6 N 9.8 0.0 0.1
23:54 6.5 2.2 74 1010.9 5.4 NW 9.8 0.0 0.1
23:55 6.6 2.3 74 1010.9 5.4 N 9.8 0.0 0.1
23:56 6.6 2.3 74 1011.0 4.5 N 9.8 0.0 0.1
23:57 6.6 2.3 74 1011.0 9.8 W 9.8 0.0 0.1
23:58 6.6 2.3 74 1010.9 6.9 NW 9.8 0.0 0.1
23:59 6.6 2.3 74 1010.9 9.2 WNW 9.8 0.0 0.1

 

 

UK - WEATHER STATION TOPSITES - UK World Weather Websites

Copyright © Carnkie Weather 2009 - 2021.